La Descente de la Lesse
Course à pied Dinant, 31/08/2014, BEL
Delhalle - 21.9km - Classement
21.9km 
Catégorie
PosNrNomAgeIOCLigueEquipeRéelTempsTkmMoy.RangNomPtsLocalité
1.1651VAN DROOGENBROECK LANDER31BELDAC1:18:111:18:113:35 16.811sen1207OPWIJK
2.1056BRANDENBOURG MICHAEL32BELRFCLARCH CINEY1:19:401:19:403:39 16.502sen1187
3.1191DIAZ RODRIGUEZ ALEXANDER35BELBEHO1:22:381:22:383:47 15.903sen1150BRUGGE
4.1073CALLIER ROMAIN25FRAEJCAJURA1:22:531:22:533:48 15.854sen1146
5.1401LEMMENS DAVY33BELTRAKKS1:23:061:23:063:48 15.815sen1143THUIN
6.1362LABROCHE DAMIEN33FRASOMMER1:24:011:24:013:51 15.646sen1132DONCHERY
7.659MAHIA SÉBASTIEN28BELFCHAMYSTERE1:24:341:24:343:52 15.547sen1125JAMBES
8.1102COLLIGNON FRÉDÉRIC44BELRFCL1:26:221:26:223:57 15.221ve11103
9.1172DENEFFE GUILLAUME31BELSMACRCNAMUR1:26:251:26:253:57 15.218sen1102NAMUR
10.1487NAVET NICOLAS25BELSPORTEX TEAM1:26:411:26:413:58 15.169sen1098ARLON
11.1374LAMBERT STEFAN48BEL1:26:591:26:593:59 15.112ve11094ANNEVOIE
12.1241FAVEAUX THIERRY51BELARCHJOGGPLUS1:27:081:27:083:59 15.081ve21092LEIGNON
13.15VANDERSTRAETEN PATRICK50BELVALTRAINING 71:27:481:27:484:01 14.972ve21084TUBIZE
14.1471MLECZKO OLIVIER43BEL1:28:481:28:484:04 14.803ve11073FLAWINNE
15.668OUMAROU YAHAYA27BELCSFMYSTERE1:29:121:29:124:05 14.7310sen1067ANDERLECHT
16.1526POCHET ANTHONY31BELARCHCAP BEAURAING1:29:121:29:124:05 14.7311sen1067BEAURAING
17.1302GUIDO GIANNI29BEL1:29:421:29:424:06 14.6512sen1061
18.1327HOPPE NICOLAS38BELTRAKKS1:30:301:30:304:08 14.5213sen10526120
19.1402LENAERTS JEAN-CHRISTOPHE37BEL1:30:581:30:584:10 14.4514sen1046VILLERS-LE-BOUILLET
20.1478MORAY LUCAS25BELSPVI1:31:021:31:024:10 14.4315sen1044WEERDE
21.1502OUBOUSKOUR BRAHIM44BELCRAC1:31:091:31:094:10 14.424ve11043
22.1652VAN DYCK TOM32BELACBR1:31:271:31:274:11 14.3716sen1039SCHOTEN
23.24RECKER MARCEL53BELLACEEUPEN1:32:551:32:554:15 14.143ve21023AMBLEVE
24.310FFROMENT SABINE39BELGAG1:33:211:33:214:16 14.081dam1018BOSSIÈRE
25.1202FDOLE MARINA39FRAEJCAJURA1:33:481:33:484:17 14.012dam1012
26.1174DENIS PATRICK48BELARCH1:34:381:34:384:20 13.895ve11003
27.1330HOWET VINCENT50BEL1:35:471:35:474:23 13.724ve2990HASTIERE
28.230SANCHEZ POSADA LUIS54BELUSBWCACE1:36:041:36:044:24 13.685ve2987RHODE ST GENESE
29.237DOS SANTOS NEIVA SERGIO41BELARCHJOGGPLUS1:36:101:36:104:24 13.666ve1985DINANT
30.1318HÉBETTE DOMINIQUE34BELARCH1:36:341:36:344:25 13.6117sen981CINEY
31.845NICODEME THIBAULT22BELRESC1:36:401:36:404:25 13.5918sen979BRUXELLES
32.1429MAGNEE TIMMY33BELARCHCAP BEAURAING1:37:141:37:144:27 13.5119sen973
33.1287GOFFINET ARNAUD21BEL1:37:181:37:184:27 13.5120sen972IZEL
34.1518PIERRE ETIENNE44BEL1:37:211:37:214:27 13.507ve1971YVOIR
35.606MERCKX PATRICK53BELVOLH1:37:251:37:254:27 13.496ve2970BEVEREN
36.1071CADO PAUL54BELFLEUFLEU1:37:291:37:294:28 13.487ve2969LIGNY
37.524CHARLIER ALAIN44BELSMAC1:37:341:37:344:28 13.478ve1967BOUGE
38.1315HARDENNE ANDRÉ49BELFLEUFLEU1:37:551:37:554:29 13.429ve1963LA HESTRE
39.1485NASLAIN DAMIEN31FRA1:38:091:38:094:29 13.3921sen960SAINT GÉRY
40.839POUCET BENOIT49BELJACO1:38:161:38:164:30 13.3710ve1959SELOIGNES
41.20FDELDICQUE LOUISE33BELCSDYTRAINING 71:38:161:38:164:30 13.373dam958LOUVAIN LA NEUVE
42.1552RICHARD BASILE23BELCSDYKFUM ÖREBRO1:39:091:39:094:32 13.2522sen949LIMELETTE
43.1618THEWISSEN THOMAS25BEL1:39:131:39:134:32 13.2423sen948CHARLEROI
44.699NOUAMANI MOHAMED43BELJOGGANS1:39:191:39:194:33 13.2311ve1947BRUXELLES
45.1019BAUDOIN PHILIPPE44BELARCH1:39:371:39:374:33 13.1912ve1943MIECRET
46.1674VERMONT YANNICK30FRAEVEIL MENDOIS L1:39:551:39:554:34 13.1524sen940
47.1509PAUWELS KRIS44BELVOLHVOLH1:40:341:40:344:36 13.0713ve1932BEVEREN
48.1470MINETTE SEBASTIEN34BEL1:40:571:40:574:37 13.0225sen928CHATELINEAU
49.1311HANCE THIBAUT31BEL1:41:001:41:004:37 13.0126sen927BELGRADE
50.313BELMILOUD MOHAMED64BELGRAC1:41:181:41:184:38 12.971ve3924PETIGNY COUVIN
DNF: abandon; DSQ: disqualifié; Vitesse en km/h
04/08/2020 - 02:11 - 814 Entrées
ChronoRace - Electronic Timing SPRL
http://www.chronorace.be

Page 1 / 17  
La Descente de la Lesse
Course à pied Dinant, 31/08/2014, BEL
Delhalle - 21.9km - Classement
21.9km 
Catégorie
PosNrNomAgeIOCLigueEquipeRéelTempsTkmMoy.RangNomPtsLocalité
51.1046BOONE JULOS53BELARCH1:41:211:41:214:38 12.978ve2923FALMIGNOUL
52.556RATINCKX JEAN PHILIPPE26BELRIWA1:41:281:41:284:38 12.9527sen921OTTIGNIES
53.863HACKENS YANNICK44BELERTK1:41:311:41:314:39 12.9514ve1921EUPEN
54.228MARCHAL YVES44BELRUNNING WILD1:41:461:41:464:39 12.9115ve1917VEDRIN
55.1354JULY-DENIS MICHAEL37BELLBFARESC1:41:481:41:484:39 12.9128sen917ZELLIK
56.851BAIJOT PHILIPPE48BELJCCS1:41:541:41:544:40 12.9016ve1915GEDINNE
57.1145DEGEIMBRE MICHEL52BELARCHARCH CINEY1:41:591:41:594:40 12.899ve2914AWAGNE
58.1075CARELS PETER32BELJOGGING MARKEVA1:42:211:42:214:41 12.8429sen910HERNE
59.1127DARTE ERIC50BELOCAN1:42:261:42:264:41 12.8310ve2909LEUZE
60.1573ROMBOUTS ERIK41BEL1:42:311:42:314:41 12.8217ve1908
61.1510PAUWELS PERCY51BELVALACBR1:42:511:42:514:42 12.7811ve2904ZOERSEL
62.1221DURAND WILFRID41FRA1:43:171:43:174:43 12.7218ve1899GIVET
63.1245FISSON SÉBASTIEN35BELARCH1:43:271:43:274:44 12.7030sen897ROCHEFORT
64.1352JOUAN BERNARD49BEL1:43:431:43:434:45 12.6719ve1894THYNES
65.1413LIÉTART PATRICE42BEL1:43:491:43:494:45 12.6620ve1893HOUYET
66.1015BAIJOT ERIC48BELARCH1:44:001:44:004:45 12.6321ve1891DINANT
67.1006APPART THIERRY34BELJC MONTAGNARD1:44:271:44:274:47 12.5831sen886CHATELET
68.1550RICHARD ANDRÉ60BELARCHASICS1:44:391:44:394:47 12.562ve3883SAINT-SERVAIS
69.1677VIALA SÉBASTIEN29FRAEVEIL MENDOIS L1:44:401:44:404:47 12.5532sen883
70.1282GIVRON REGIS24BELTHIMEON1:44:451:44:454:47 12.5533sen882BELGIQUE
71.58HENRY ANDRE54BELAG RUN TEAM1:45:101:45:104:49 12.5012ve2877LA HULPE
72.765MATERNE DANIEL56BELUSBWMYSTERE1:45:411:45:414:50 12.4313ve2872BRAINE-L'ALLEUD
73.1043BOLAND MALORY23BELSPORTEX TEAM1:45:511:45:514:50 12.4134sen870FORRIERES
74.265BOONEN CHRIS43BELAVN1:45:581:45:584:51 12.4022ve1869MEER
75.1454MEINGUET DORIAN28BELTRAKKS1:46:061:46:064:51 12.3935sen867UCCLE
76.219KOLP VINCENT27BEL1:46:151:46:154:52 12.3736sen865BRUXELLES
77.1532PONSAERT WIM32BEL1:46:181:46:184:52 12.3637sen864BUGGENHOUT
78.146VAN NEVEL FRANS60BELBEHO1:46:241:46:244:52 12.353ve3863BRUGGE
79.722PIERRE JONATHAN20BEL1:46:311:46:314:52 12.3438sen861RAMILLIES
80.1627TISON ALAIN63BEL1:46:391:46:394:53 12.324ve3859EVERE
81.1602SMEYERS NICOLAS23BELTRAKKS PEGASUS 1:46:471:46:474:53 12.3139sen858BERCHEM-SAINTE-AGHATE
82.1489NEMECEK MARTIN29CZE1:46:571:46:574:53 12.2940sen856BRUSSELS
83.1667VASTEMANS VINCENT34BELRESC1:47:011:47:014:54 12.2841sen855
84.1482MOYEN JONATHAN36BEL1:47:081:47:084:54 12.2742sen853BASTOGNE
85.364DEWAIDE ANTONI41BEL1:47:171:47:174:54 12.2523ve1851TINLOT
86.1555RICHARD ULRICH40BEL1:47:171:47:174:54 12.2524ve1851
87.1069BUX ANTONIO36BELBUXCOURCELLES1:47:171:47:174:54 12.2543sen851COURCELLES
88.1258FRANCOIS ERIC42BEL1:47:191:47:194:54 12.2425ve1850OVERIJSE
89.1124DANDOIS FABIAN36BELJAMES1:47:201:47:204:55 12.2444sen849VILLERS-LA-VILLE
90.125FVAN DER ZWALMEN SABINE34BELUSBWMYSTERE1:47:241:47:244:55 12.244dam848LASNE
91.264SCAILLET VINCENT45BELHASTRAIL1:47:391:47:394:55 12.2126ve1846HEER SUR MEUSE
92.1144DEFRANCE SÉBASTIEN36BEL1:48:021:48:024:56 12.1645sen842SCHAERBEEK
93.250MAQUET DENIS28BELARCH1:48:091:48:094:57 12.1546sen840NIVELLES
94.78DUTRIEUX FERNAND43BEL1:48:221:48:224:57 12.1327ve1837BAUDOUR
95.106LORGE JEAN-MARC48BEL1:48:331:48:334:58 12.1128ve1836
96.721DARDENNE BERTRAND40BELFLEU1:48:341:48:344:58 12.1029ve1835LIGNY
97.1542RAVYTS ALAIN51BEL1:48:401:48:404:58 12.0914ve2834ANDERLECHT
98.1592SCOUBEAU HENRI47BELRYTHMEACLUB1:48:511:48:514:59 12.0730ve1831SOIGNIES
99.1622THOMAS PIERRE23BEL1:48:581:48:584:59 12.0647sen830BEAUFAYS
100.284MARTHOZ PASCAL45BELCEPAL1:48:591:48:594:59 12.0631ve1829BRUXELLES
DNF: abandon; DSQ: disqualifié; Vitesse en km/h
04/08/2020 - 02:11 - 814 Entrées
ChronoRace - Electronic Timing SPRL
http://www.chronorace.be

Page 2 / 17  
La Descente de la Lesse
Course à pied Dinant, 31/08/2014, BEL
Delhalle - 21.9km - Classement
21.9km 
Catégorie
PosNrNomAgeIOCLigueEquipeRéelTempsTkmMoy.RangNomPtsLocalité
101.1545RENARD BRUNO45BEL1:49:141:49:145:00 12.0332ve1827NALINNES
102.899LEHANCE PASCAL42BELRFCL1:49:211:49:215:00 12.0233ve1825LIEGE
103.1536POUSSART MICHAEL40BEL1:49:301:49:305:00 12.0034ve1823VIRELLES
104.394BUIS QUENTIN26BELRONVAU1:49:311:49:315:01 12.0048sen823CHAUMONT GISTOUX
105.712LORENT XAVIER33BELBOUFFIOLS1:49:371:49:375:01 11.9949sen822BOUFFIOULX
106.86TENRET DANIEL60BELBOUFFIOLS1:49:381:49:385:01 11.995ve3821GERPINNES
107.1179DESCAMPE ARNAUD26BEL1:49:401:49:405:01 11.9850sen820BIERGES
108.1053BOUTAVIN DANIEL55FRAEVEIL MENDOIS L1:49:431:49:435:01 11.9815ve2819
109.1166DEMIN MICHEL46BEL1:49:441:49:445:01 11.9835ve1819SOVET
109.1537POUSSEUR DOMINIQUE44BELARCH1:49:441:49:445:01 11.9835ve1819LEIGNON
111.872JANSSENS ERIC43BELBDG RUNNERS1:49:481:49:485:01 11.9737ve1817SCHAERBEEK
112.983CULLOP PAUL53BELENJAMBEE1:50:001:50:005:02 11.9516ve2815BRUXELLES
113.1412LICHTHERTE ERIC40BELBC LA HULLE1:50:061:50:065:02 11.9438ve1814HULSONNIAUX
114.26DRAMAIX SYLVAIN35BELLA FORESTIERE1:50:081:50:085:02 11.9351sen813HERCHIES
115.882CUPPENS BENOIT38BEL1:50:181:50:185:03 11.9152sen811BEAUFAYS
116.1063BROSTEAUX PIERRE36BELARCH1:50:371:50:375:04 11.8853sen808CHEVETOGNE
117.1391LEDOUX THIERRY45BELARCHARCH CINEY1:50:371:50:375:04 11.8839ve1807HAVELANGE
118.1307FHACK PAULINA38SWECACE1:50:441:50:445:04 11.875dam806KRAAINEM
119.477GRANDMONT JEAN-NOËL41BELARCHARCH CINEY1:50:591:50:595:05 11.8440ve1803NASSOGNE
120.1585SARTORI SERGIO49ITAFLEU1:51:051:51:055:05 11.8341ve1802SAMBREVILLE
121.749FLEROY VALERIE40BELSPEEDX1:51:061:51:065:05 11.831ai1801LANEFFE
122.1285GOCHARD MANUEL48BELSPEEDX1:51:071:51:075:05 11.8342ve1801LANEFFE
123.1397LEJEUNE ETIENNE40BEL1:51:101:51:105:05 11.8243ve1800TEMPLOUX
124.1596SERCKX THOMAS42BEL1:51:141:51:145:05 11.8144ve1799CHAUMONT-GISTOUX
125.1529POLLET GEERT53BELABAV1:51:151:51:155:05 11.8117ve2798BRUGGE
126.1691ZEGGERS GUY60BELONH1:51:261:51:265:06 11.796ve3796VIRGINAL
127.725PIERRE BENJAMIN19BELCSDYCS DYLE1:51:301:51:305:06 11.791esp795RAMILLIES
128.1654VAN EYCKE GERT46BELVOLHVOLH1:51:311:51:315:06 11.7845ve1795BEVEREN
129.1424LOWIE FRANK49BELVOLH1:51:311:51:315:06 11.7846ve1794BEVEREN
130.103VAN WYNENDAELE DIMITRY41BELJOGGANS1:51:361:51:365:06 11.7847ve1793BRUXELLES
131.1428MAGIS ALVARIC26BELRHT1:51:391:51:395:06 11.7754sen792MELLERY
132.1227ELLEBOUDT NICOLAS35BEL1:52:001:52:005:07 11.7355sen789HASTIÈRE
133.1217DUMOULIN SÉBASTIEN40BEL1:52:031:52:035:07 11.7348ve1788FORGES
134.1214DULLIER OLIVIER42BEL1:52:081:52:085:08 11.7249ve1787MAILLEN
135.427VAN DER LINDEN PAUL65BELRCNAMUR1:52:131:52:135:08 11.717ve3786MALONNE
136.1572ROLIN DANIEL38BELBC LA HULLE1:52:261:52:265:09 11.6956sen783DINANT
137.1696MARSIN GAETAN39BELRCBMYSTERE1:52:331:52:335:09 11.6757sen781BRUXELLES
138.202WIECZOR KEVIN28BELESM1:52:361:52:365:09 11.6758sen781GOZEE
139.97FLEROY FABIENNE40BELFCHA1:52:381:52:385:09 11.672ai1780BERLOZ
140.1409LIBOIS JOACHIM18BELRCNAMUR1:52:381:52:385:09 11.672esp780ANDENNE
141.1242FERNANDE PIERRE32BEL1:52:471:52:475:09 11.6559sen778LANEFFE
142.1349JOLY JEAN-MARIE47BEL1:52:501:52:505:10 11.6550ve1777SORÉE
143.1699BOSKIN BERNARD26BEL1:53:061:53:065:10 11.6260sen774STAVELOT
144.1633VAN BEL PETER48BELBRTC1:53:121:53:125:11 11.6151ve1773BRASSCHAAT
145.1698GOOSSE GERARD62BEL1:53:131:53:135:11 11.618ve3772
146.1690XHONNEUX MARC34BELRESC1:53:161:53:165:11 11.6061sen771BRUXELLES
147.1604SNAUWAERT VANICK35BEL1:53:221:53:225:11 11.5962sen770DINANT
148.1308HAEGHENS GILLES27BELARCH1:53:261:53:265:11 11.5863sen769CHEVETOGNE
149.1614TANGHE GREGORY31BEL1:53:311:53:315:11 11.5864sen768NAOMÉ
150.1068BURTOMBOY NICOLAS34BELTRAIL DE LA LES1:53:381:53:385:12 11.5765sen766FRAMONT
DNF: abandon; DSQ: disqualifié; Vitesse en km/h
04/08/2020 - 02:11 - 814 Entrées
ChronoRace - Electronic Timing SPRL
http://www.chronorace.be

Page 3 / 17  
La Descente de la Lesse
Course à pied Dinant, 31/08/2014, BEL
Delhalle - 21.9km - Classement
21.9km 
Catégorie
PosNrNomAgeIOCLigueEquipeRéelTempsTkmMoy.RangNomPtsLocalité
151.1205DROMZÉE LUDOVIC38FRA1:53:411:53:415:12 11.5666sen766FROMELENNES
152.985CIEPERS JOHNNY22BEL1:53:431:53:435:12 11.5667sen765HASTIERE
153.1591SCHULLER GRÉGORY27BELJOGGAN1:53:451:53:455:12 11.5568sen764GANSHOREN
154.661DENEFFE GEORGES57BELRONVAU1:53:481:53:485:12 11.5518ve2764CHAUMONT GISTOUX
155.1199DISY CLAUDE45BEL1:53:511:53:515:12 11.5452ve1763HUY
156.1384LEBON DOMINIQUE54BELCEPAL1:53:511:53:515:12 11.5419ve2762BRUXELLES
157.1381LASCHEWSKI ANDRÉ37DEUMYSTERE1:53:561:53:565:13 11.5369sen761FOREST (BXL)
158.1648VAN DE SANDE BART40NLDKNAUS.V. FORTUNA '61:53:571:53:575:13 11.5353ve1761SINT-OEDENRODE
159.1250FOGUENNE OLIVIER43BEL1:54:121:54:125:13 11.5154ve1758STAVELOT
160.1490NENNEN ALAIN47BEL19671:54:181:54:185:14 11.5055ve17565520
161.580HOMBROUX MARCEL61BELFCHAHANNUT1:54:181:54:185:14 11.509ve3756MONTENAKEN
162.1281GILSOUL GRÉGORY31BEL1:54:221:54:225:14 11.4970sen755VINALMONT
163.1002ALBERT JOHANN32BEL1:54:221:54:225:14 11.4971sen754PHILIPPEVILLE
164.241FVANDERLINDEN JULIE30BELCEPALTRAINING 71:54:241:54:245:14 11.496dam754KRAAINEM
165.321ORVAL ALAIN45BEL1:54:241:54:245:14 11.4956ve1754CINEY
166.46FOLIX CHEILA51BELARCHBEAURAING1:54:301:54:305:14 11.481ai2752GOZIN
167.1257FRANCHIMONT PIERRE43BEL1:54:381:54:385:15 11.4657ve1751MARCHE-EN-FAMENNE
168.531ANTENUCCI MAURO57BELESM1:54:471:54:475:15 11.4520ve2749GOSSELIES
169.1689WOIT JEAN-CHRISTOPHE40BELVICO MARCHIN1:54:501:54:505:15 11.4458ve1748HUY
170.1034FBLAISE CHRISTIANE52BELARCH1:54:531:54:535:15 11.442ai2747ANTHÉE
171.1595SEMES SIMON24BELDEDEX TEAM1:54:591:54:595:16 11.4372sen746MEIX-DEVANT-VIRTON
172.567DECLERCQ JOE56BELCEPAL1:55:051:55:055:16 11.4221ve2745BRUXELLES
173.1304GUILLAUME PIERRE50BEL1:55:121:55:125:16 11.4122ve2743GESVES
174.128BAURIN HERVE49BEL1:55:171:55:175:16 11.4059ve1742AGIMONT
175.1562ROBERT GAELIC40FRAJCPMF HERON1:55:181:55:185:16 11.4060ve1742HERON
176.1511PEPIN CEDRIC36BEL1:55:321:55:325:17 11.3773sen739FLAWINNE
177.1415LIXANDRU ANDREI35ROU1:55:481:55:485:18 11.3574sen736VALENCIENNES
178.1522PIRE-STEVENNE FRÉDÉRIC34BEL1:55:541:55:545:18 11.3475sen735GODINNE
179.185BOURSIE JOSEPH66BELLACEERTK1:55:551:55:555:18 11.3410ve3734LACALAMINE
180.687LUX RALPH49BELGRACERTK1:55:571:55:575:18 11.3361ve1734LA CALAMINE
181.764FYAGUE-SANZ NATHALIE42BEL1:55:581:55:585:18 11.333ai1733BELGRADE
182.1108FCORDIER CHRISTINE48BEL1:56:011:56:015:18 11.334ai1732JUPRELLE
183.1578ROSILLON DOMINIQUE57BELARCH1:56:101:56:105:19 11.3123ve2731SORÉE
184.910WAERTS ALAIN61BELLBFASER ATHL1:56:111:56:115:19 11.3111ve3730BARVAUX
185.1332HUBERT CHRISTOPHE50BEL1:56:411:56:415:20 11.2624ve2725LUSTIN
186.1090CHILIADE FABRICE44BELGLAISE ET ROC C1:56:411:56:415:20 11.2662ve1725ACHET
187.1389LECLERCQ LAURENT50BEL1:56:441:56:445:20 11.2625ve2724BRUXELLES
188.1681WAGNER SÉBASTIEN42FRACMACHARLEVILLE MÉZ1:56:521:56:525:21 11.2463ve1723
189.1170DENDAL DIDIER51BEL1:56:571:56:575:21 11.2426ve2721LIÈGE
190.1577ROSIER DANY54BELBEAUDETS DINANT1:57:071:57:075:21 11.2227ve2720DINANT
191.1072CALLIER PHILIPPE51FRAEJCAJURA1:57:111:57:115:22 11.2128ve2718
192.608ROSSI STEPHANE48BELSC BUTGENBACH1:57:161:57:165:22 11.2164ve1717ROBERTVILLE
193.1666VANWYNSBERGHE BERNARD54BELJAMES1:57:181:57:185:22 11.2029ve2717WALHAIN
194.1467MICHAUX JEAN-FRANÇOIS37BELARCH1:57:341:57:345:23 11.1876sen714HAVELANGE
195.246VANTSIOTIS ANASTHASE61FRA1:57:391:57:395:23 11.1712ve3713BARR
196.1070FBUZIN DONATIENNE47BELARCH1:57:401:57:405:23 11.175ai1712HAN SUR LESSE
197.1514PESSLEU TANGUY38BEL1:57:401:57:405:23 11.1777sen712LESVE
198.1092CHRISTIAENS ALEXANDRE32BEL1:57:401:57:405:23 11.1778sen711RÈVES
199.1239FAUCONNIER PASCAL47BELACBR1:57:411:57:415:23 11.1765ve1711SCHOTEN
200.1355JUSTE CHRISTIAAN58BELL'AVENIR1:57:461:57:465:23 11.1630ve2710BOUTERSEM
DNF: abandon; DSQ: disqualifié; Vitesse en km/h
04/08/2020 - 02:11 - 814 Entrées
ChronoRace - Electronic Timing SPRL
http://www.chronorace.be

Page 4 / 17  
La Descente de la Lesse
Course à pied Dinant, 31/08/2014, BEL
Delhalle - 21.9km - Classement
21.9km 
Catégorie
PosNrNomAgeIOCLigueEquipeRéelTempsTkmMoy.RangNomPtsLocalité
201.1593SCOUBEAU OLIVIER51BELHAC1:57:571:57:575:24 11.1431ve2708SPIENNES
202.1435MARISSIAUX BERTRAND48BEL1:58:031:58:035:24 11.1366ve1707ACHET
203.532FDE VROEDE NADINE53BELUSBWMYSTERE1:58:041:58:045:24 11.133ai2706BRAINE L'ALLEUD
204.1254FOSCOLO NICOLAS31BEL1:58:071:58:075:24 11.1379sen705LIERNU
205.1284GOBBE PHILIPPE49BELFLEU1:58:091:58:095:24 11.1267ve1704MELLET
206.1360FKNOTT FABIENNE45BELFLEUFLEU1:58:091:58:095:24 11.126ai1704RANSART
207.1568ROB VINCENT30BELFLEU1:58:101:58:105:24 11.1280sen703WANFERCÉE-BAULET
208.676LESTRATE GABRIEL62BELHEIN1:58:181:58:185:25 11.1113ve3702FLOREE
209.1380LA ROCCA SALVATORE53ITA1:58:261:58:265:25 11.1032ve2701
210.1423LOUIS CÉDRIC29BELUSBWUSBW1:58:321:58:325:25 11.0981sen699HUAT-ITTRE
211.1137DE CLIPPELE FLORIAN17BEL1:58:341:58:345:25 11.083esp699BRUXELLES
212.1004ANCIAUX JEAN-PAUL45BEL1:58:411:58:415:26 11.0768ve1697
213.1271GENONCEAUX ERIC32BEL1:58:411:58:415:26 11.0782sen697KAIN
214.1506PAQUAY DAVID40BEL1:58:421:58:425:26 11.0769ve1696LAMINE
215.22DE MASI GIANNI61BELFLEU1:58:491:58:495:26 11.0614ve3695WANFERCEE BAULET
216.1294GOTTÉ YVES62FRARACROMBAS A C1:58:501:58:505:26 11.0615ve3694ROZÉRIEULLES
217.1340JACQUES LAURENT30BEL1:58:511:58:515:26 11.0683sen694ANDENNE
218.446RIJCKAERT FABIAN44BEL1:58:561:58:565:26 11.0570ve1692ANDENNE
219.1449MATHY JEAN-LUC61BELRCNAMUR1:59:101:59:105:27 11.0316ve3690NAMUR
220.279SCHMIDT MAARTEN32BELCSFMYSTERE1:59:151:59:155:27 11.0284sen689FOREST
221.1299GRISARD PIERRE42BELDÉDÉ FOULÉES1:59:181:59:185:27 11.0271ve1688ERPENT
222.612DEMORTIER LUC44BEL1:59:231:59:235:28 11.0172ve1687SPY
223.1182DESMET ALAIN51BEL1:59:281:59:285:28 11.0033ve2686
224.767COLPAERT GUIDO76BELRCNAMUR1:59:331:59:335:28 10.991ve4685WEPION
225.486CANIVET ROLAND67BELBOUFFIOLS1:59:351:59:355:28 10.9917ve3684NALINNES
226.1098COCHIN PIERRE51BELTOTAL1:59:401:59:405:28 10.9834ve2683CHAPELLE LEZ HERLAIMONT
227.425DE GRAVE OLIVIER49BELCSFMYSTERE1:59:591:59:595:29 10.9573ve1680UCCLE
228.1164DEMARET OLIVIER41BELBAIL RUN2:00:012:00:015:29 10.9574ve1679GODINNE
229.1388LECLERCQ DAMIEN43BELARCH2:00:052:00:055:29 10.9475ve1678ASSESSE
230.134GILON MARC51BELRCNAMUR2:00:112:00:115:30 10.9335ve2677NAMUR
231.1314FHANSSEN BABETTE50BEL2:00:152:00:155:30 10.934ai2676
232.1544RELEKOM STEPHANE47BELRCNAMUR2:00:292:00:295:31 10.9176ve1674FRANIERE
233.537ERTZINGER JEAN PIERRE61BELZURENBORG SPORT2:00:362:00:365:31 10.9018ve3672ANTWERPEN
234.886DEWOLF PHILIPPE63BELESM2:00:362:00:365:31 10.9019ve3672MERBES SAINTE MARIE
235.841SALVATO DOMENICO51BELCSFMYSTERE2:00:392:00:395:31 10.8936ve2671BRUXELLES
236.1635FVAN CASTER SANDRINE40BELSWIFT2:00:432:00:435:31 10.897ai1670OHAIN
237.1343JANSSENS STEVEN41BELBERLIN BOYZ2:00:442:00:445:31 10.8877ve1670HOEILAART
238.645FWIGNY SABINE40BELRCNAMUR2:00:592:00:595:32 10.868ai1667VEDRIN
239.1574ROMEDENNE DENIS32BELARCH2:01:002:01:005:32 10.8685sen666NATOYE
240.1082CHAMPAGNE JEAN-CHRISTOPHE32BELJCAI2:01:032:01:035:32 10.8686sen666JODOIGNE
241.1240FFAVEAUX PATRICIA47BELARCH2:01:082:01:085:32 10.859ai1665CINEY
242.29LAURENT JOHN38BELARCHARCH CINEY2:01:122:01:125:33 10.8487sen663PURNODE
243.465BOSKIN JEAN-CLAUDE59BELLES IDYLLES2:01:172:01:175:33 10.8437ve2662STAVELOT
244.346LELOUP YVES60BELFLEUFLEU2:01:302:01:305:33 10.8220ve3660SAINT-AMAND
245.998NAZÉ OLIVIER43BELRCNAMUR2:01:332:01:335:34 10.8178ve1659VEDRIN
246.83PEETERS QUENTIN35BELSPT WAVRE2:01:422:01:425:34 10.8088sen658LIMAL
247.887AHELCHIAA MOHAMED54BELCSFMYSTERE2:01:482:01:485:34 10.7938ve2656FOREST
248.1065BUCHET SÉBASTIEN41BELFLEU2:01:482:01:485:34 10.7979ve1656CHATELET
249.859FKHARROUBI AWATEF42BELJCCS2:01:512:01:515:34 10.7810ai1655GEDINNE
250.255ADAMS LUDO52BELAVN2:02:002:02:005:35 10.7739ve2654MERKSPLAS
DNF: abandon; DSQ: disqualifié; Vitesse en km/h
04/08/2020 - 02:11 - 814 Entrées
ChronoRace - Electronic Timing SPRL
http://www.chronorace.be

Page 5 / 17  
La Descente de la Lesse
Course à pied Dinant, 31/08/2014, BEL
Delhalle - 21.9km - Classement
21.9km 
Catégorie
PosNrNomAgeIOCLigueEquipeRéelTempsTkmMoy.RangNomPtsLocalité
251.1521PIRAUX LUDOVIC41BEL2:02:032:02:035:35 10.7780ve1653BOITSFORT
252.79CARTON HUBERT58BELARCH2:02:262:02:265:36 10.7340ve2649SOVET
253.1640VANDEKERCKHOVE CHRISTOPHE39BEL2:02:492:02:495:37 10.7089sen646FLAWINNE
254.1032BISCOS DAVID41BELJAMES2:02:512:02:515:37 10.7081ve1645ARCHENNES
255.1527POGNON GILLES49FRA2:03:112:03:115:38 10.6782ve1642MOUZON
256.1117CUVELIER SERGE54BELRCNAMUR2:03:192:03:195:38 10.6641ve2640WÉPION
257.1244FILSFILS MAXIME33BEL2:03:292:03:295:39 10.6490sen638NAMUR
258.1406LETE JORDAN32BEL2:03:352:03:355:39 10.6391sen637SURICE
259.1664VAN THIENEN GERT-JAN42NLDKNAUS.V. FORTUNA '62:03:392:03:395:39 10.6383ve1636SINT-OEDENRODE
260.1615FTASIAUX LAURENCE37BEL2:03:452:03:455:40 10.627dam635LA LOUVIÈRE
261.1023BERTOLUTTI ARNAUD39FRA2:03:462:03:465:40 10.6292sen635FROMELENNES
262.1453MEIGNAN ALEXANDRE28FRA2:04:002:04:005:40 10.6093sen632LILLE
263.1358KINET OLIVIER43BELRUNNING TEAM CO2:04:072:04:075:41 10.5984ve1631MARCHIN
264.1673VERMEIREN BEN38BELBREAC2:04:132:04:135:41 10.5894sen629BRASSCHAAT
265.1148DEJACE ROBERT42BELCABW2:04:132:04:135:41 10.5885ve1629
266.466FDEMOULIN BRIGITTE54BELSMACRCNAMUR2:04:392:04:395:42 10.545ai2625LUSTIN
267.55ROBERTI DE WINGHE MAX59BELLACERONVAU2:04:422:04:425:42 10.5442ve2624ARCHENNES
268.1045BONDAS BERNARD46BEL2:04:462:04:465:42 10.5386ve1623BRUXELLES
269.1379LAOUREUX XAVIER38BEL2:04:542:04:545:43 10.5295sen622NAMUR
270.1160DELTOMBE LUC44BEL2:04:542:04:545:43 10.5287ve1622WOLUWE-SAINT-PIERRE
271.1481MOUZON JEAN-MARIE49BELARCH2:04:562:04:565:43 10.5288ve1621MARCHE-EN-FAMENNE
272.1650VAN DE VYVERE POL47BEL2:04:572:04:575:43 10.5289ve1621NOVILLE-LES-BOIS
273.1417LOICQ ADRIEN30BEL2:05:032:05:035:43 10.5196sen619ROSELIES
274.1469MILIS STEPHAN56BEL2:05:132:05:135:44 10.4943ve2617KRAAINEM
275.1064BRUYÈRE SERGE55BELFLEUFLEU2:05:202:05:205:44 10.4844ve2616TAMINES
276.14COLMANT OLIVIER56BELJE COURS À INCO2:05:232:05:235:44 10.4845ve2615INCOURT
277.1035BLASIOLI THOMAS29BEL2:05:302:05:305:44 10.4797sen614MONS
278.770DE GRAVE MAXIME15BELCSFMYSTERE2:05:312:05:315:44 10.474esp613UCCLE
279.1233EVRARD DIDIER49BELRUN PRO2:05:362:05:365:45 10.4690ve1612BOIS DE VILLERS
280.1367LAFORÊT STÉPHANE40BEL2:05:362:05:365:45 10.4691ve1612LESVE
281.1345JASSELETTE ARNAUD33BEL2:05:382:05:385:45 10.4698sen611RIXENSART
282.653SERON BENOIT53BEL2:05:422:05:425:45 10.4546ve2610MALONNE
283.1441FMARTIN ISABELLE30BELRCNAMUR2:05:462:05:465:45 10.458dam609MAILLEN
284.1223DURY JEAN54BELGAG2:05:522:05:525:45 10.4447ve2608LONZÉE
285.1634VANBENEDEN FREDERIC50BELLDLV2:05:522:05:525:45 10.4448ve2608BAISY THY
286.1394LE FORT DAVID30BEL2:06:062:06:065:46 10.4299sen605LASNE
287.1126DARON MICHAËL42BEL2:06:122:06:125:46 10.4192ve1604MESNIL-ST-BLAISE
288.1130DE BEER CHRISTOPHE37BELCOACHING ZONE2:06:142:06:145:46 10.41100sen603BRUXELLES
289.1606SPELLANZON MICHAEL43BELFRT2:06:172:06:175:46 10.4193ve1603BINCHE
290.1597SESTITO GUISEPPE48ITAUACUAC2:06:202:06:205:47 10.4094ve1602MARCINELLE
291.1557FRISSELIN CHRISTELLE30BELJAMES2:06:322:06:325:47 10.399dam600VILLERS-LA-VILLE
292.1611STREBER FERNAND59BELARCHARCH CINEY2:06:342:06:345:47 10.3849ve2599SERINCHAMPS
293.426QUINET BERNARD62BELFLEU2:06:372:06:375:47 10.3821ve3598GILLY
294.352BEYAERT MATTHIEU40BELRONVAU2:06:442:06:445:48 10.3795ve1597BOUSVAL
295.1319HEBRANT ALEXANDRE40BEL2:06:542:06:545:48 10.3696ve1595GREZ-DOICEAU
296.1125DANIELOU BRUNO56FRAEJCAJURA2:06:582:06:585:48 10.3550ve2594
297.1176DEPOORTER FREDERIC40FRATRAIL DE LA LES2:06:592:06:595:48 10.3597ve1594DAVERDISSE
298.1590SCHUERMANS VINCENT38BEL2:06:592:06:595:48 10.35101sen593
299.332HANNARD KEVIN31BEL2:07:092:07:095:49 10.33102sen591AUVELAIS
300.1563FROBERTI DAPHNÉ38BELRCNAMUR2:07:162:07:165:49 10.3310dam590STAVE
DNF: abandon; DSQ: disqualifié; Vitesse en km/h
04/08/2020 - 02:11 - 814 Entrées
ChronoRace - Electronic Timing SPRL
http://www.chronorace.be

Page 6 / 17  
La Descente de la Lesse
Course à pied Dinant, 31/08/2014, BEL
Delhalle - 21.9km - Classement
21.9km 
Catégorie
PosNrNomAgeIOCLigueEquipeRéelTempsTkmMoy.RangNomPtsLocalité
301.1112COUPE PHILIPPE54FRACMACHARLEVILLE MÉZ2:07:242:07:245:49 10.3251ve2589
302.1587SAUBLAINS ALAIN55BELMYSTERE2:07:242:07:245:50 10.3152ve2588FOREST
303.1421LOOP DAVIDFRAEJCAJURA2:07:262:07:265:50 10.311xxx587
304.1601SMAL PATRICK50BELJAME'S2:07:272:07:275:50 10.3153ve2587BOTHEY
305.1361FKUSTERS PASCALE50BELUAC2:07:392:07:395:50 10.306ai2585GILLY
306.1497NSENGIMANA THEO24RWAUACUAC2:07:392:07:395:50 10.29103sen585MONS
307.444VAN GENECHTEN SERGE53BELAXA TEAM2:07:392:07:395:50 10.2954ve2585WATERLOO
308.1266GASMANNE DOMINIQUE47BEL2:07:412:07:415:50 10.2998ve1584LANDELIES
309.1152DELAPLACE PIERRE36BELSMAC2:07:422:07:425:50 10.29104sen583PROFONDEVILLE
310.1336ISTACE XAVIER49FRACMA2:07:452:07:455:50 10.2999ve1582CHARLEVILLE -MÉZIÈRES
311.1508FPARSY CLEMENCE28FRA2:07:512:07:515:51 10.2811dam581LILLE
312.1048BOUFFIOUX MARC51BEL2:07:522:07:525:51 10.2855ve2580GODINNE
313.1548RENARD RAPHAËL28BELJCPMF TENNEVILL2:07:532:07:535:51 10.28105sen580TENNEVILLE
314.733FCRYNS VALERIE47BELUSBWMYSTERE2:08:072:08:075:51 10.2611ai1578BRAINE L'ALLEUD
315.404TILBURGS FRANK47BELAVN2:08:112:08:115:52 10.25100ve1577MEER
316.1055BRAHAM RENAUD40BEL2:08:122:08:125:52 10.25101ve1576JEMELLE
317.1296GREGOIRE VINCENT45BELCRACJC MONTAGNARD2:08:142:08:145:52 10.25102ve1576FORCHIES-LA-MARCHE
318.680PISCART QUENTIN27BELLA FORESTIERE2:08:162:08:165:52 10.24106sen575OBOURG
319.1042BOGAERT MAARTEN35BEL2:08:212:08:215:52 10.24107sen574GENT
320.1136DE CLIPPELE BRUNO56BEL2:08:282:08:285:52 10.2356ve2573
321.1181DESMARETS MATHIEU35BEL2:08:282:08:285:52 10.23108sen572GRAND MANIL
322.1305FGUILLOUET NADIA48FRAEVEIL MENDOIS L2:08:302:08:305:53 10.2312ai1571
323.318STICKER JOHAN55BELOXYGENE2:08:312:08:315:53 10.2357ve2571BIERCEE
324.1237FARVACQUE SEEWOO34BEL2:08:342:08:345:53 10.22109sen570SCHAERBEEK
325.1180FDESILLE NICOLE47BEL2:08:342:08:345:53 10.2213ai1569LA HULPE
326.907FTHIRY MARIE32BELRCNAMUR2:08:362:08:365:53 10.2212dam569NANINNE
327.177HIGUET PIERRE50BELJCCS2:08:432:08:435:53 10.2158ve2568VONECHE
328.1188DEVIS LUIGI16BELJAMESJAMES2:08:472:08:475:53 10.205esp567LAOUVAIN-LA-NEUVE
329.805MATHELART PIERRE54BELANTILOB2:08:492:08:495:53 10.2059ve2566COURT SAINT ETIENNE
330.992LETHE VINCENT54BELRONVAU2:08:532:08:535:54 10.2060ve2565TOURINNES-SAINT-LAMBERT
331.366FLANSLOTS VIVIANE49BELAVN2:08:572:08:575:54 10.1914ai1564MERKSPLAS
332.1089CHEVALIER MICHAEËL42BEL2:08:592:08:595:54 10.19103ve1564NIMY
333.1078CASTIAU LAURENT39BELJCPMF2:09:052:09:055:54 10.18110sen563ECAUSSINNES
334.1348JOBE BERNARD40BELMDS20152:09:072:09:075:54 10.18104ve1562LIEGE
335.1370LALLEMAND THOMAS38BEL2:09:082:09:085:54 10.18111sen561DAUSSOULX
336.1419LONGIN PIETER54BELHOOIBERGLOPERS2:09:082:09:085:54 10.1861ve2561HAACHT
337.1150DEJONGHE CHRISTIAN58BEL2:09:102:09:105:54 10.1762ve2560ECAUSSINNES
338.1033BLAIRON BENJAMIN29BELARCH2:09:142:09:145:55 10.17112sen559DINANT
339.1672VERMEESCH SAMUEL35BEL2:09:142:09:145:55 10.17113sen559LAVACHERIE
340.679MERCIER LUC56BELJAMESJAMES2:09:162:09:165:55 10.1763ve2558LOUVAIN LA NEUVE
341.840MICHEL SERGE50BELHRC2:09:212:09:215:55 10.1664ve2557LEGLISE
342.1171DENEFFE GEORGES20BEL2:09:302:09:305:55 10.15114sen555DINANT
343.1564ROBERTI DE WINGHE NICIOLAS30BELROBERTI RUNNERS2:09:342:09:345:55 10.14115sen554BRUXELLES
344.1178DESABLENS GAUTHIER28BELARCHARCH CINEY2:09:542:09:545:56 10.12116sen551DINANT
345.1632VAN BELLINGHEN CHRISTOPHE38BEL2:09:552:09:555:56 10.11117sen551
346.1118DABE BENJAMIN27BEL2:09:572:09:575:57 10.11118sen550LIBRAMONT
347.517KOLP CHRISTIAN60BEL2:09:582:09:585:57 10.1122ve3550BRUXELLES
348.1116CROP OLIVIER51FRA2:10:102:10:105:57 10.1065ve2548BRUXELLES
349.1322FHENRY MANON20BEL2:10:132:10:135:57 10.0913dam547LA HULPE
350.1300GROLLINGER THIERRY49BELARCHARCH CINEY2:10:182:10:185:57 10.08105ve1546BONSIN
DNF: abandon; DSQ: disqualifié; Vitesse en km/h
04/08/2020 - 02:11 - 814 Entrées
ChronoRace - Electronic Timing SPRL
http://www.chronorace.be

Page 7 / 17  
La Descente de la Lesse
Course à pied Dinant, 31/08/2014, BEL
Delhalle - 21.9km - Classement
21.9km 
Catégorie
PosNrNomAgeIOCLigueEquipeRéelTempsTkmMoy.RangNomPtsLocalité
351.1520PINDEVILLE CHRISTIAN66BELRIWA2:10:212:10:215:58 10.0823ve3545WAVRE
352.1225DUSSART FABRICE51BEL2:10:272:10:275:58 10.0766ve2544ROCHEFORT
353.1156DELLA FAILLE GILLES43BELENJAMBÉE2:10:282:10:285:58 10.07106ve1543SCHAERBEEK
354.1378LAMBRECHTS JEAN-MARC40BELENJAMBEE2:10:282:10:285:58 10.07107ve1543WEZEMBEEK OPPEM
355.571LABBE CHRISTIAN64BELRCNAMUR2:10:292:10:295:58 10.0724ve3543VEDRIN
356.1107CORBIAU FRANÇOIS35BEL2:10:302:10:305:58 10.07119sen542
357.1026BERTRAND FRANCOIS33BEL2:10:432:10:435:59 10.05120sen540MARCHOVELETTE
358.1306GUISSET MARC71BEL2:10:572:10:575:59 10.032ve4538BOUSVAL
359.820BIENFAIT QUENTIN36BELB.T.B.T2:11:002:11:005:59 10.03121sen537BRAY
360.644FDUJACQUIER MAGALI39BELTEAM COMPRE2:11:002:11:005:59 10.0314dam536MONT SUR MARCHIENNE
361.940MAAS STIJN37BEL2:11:052:11:056:00 10.02122sen535BRUXELLES
362.1457MELLINA DAMIEN36FRACMACHARLEVILLE MÉZ2:11:082:11:086:00 10.02123sen534
363.849ABRAHAM LUC57BELUSBWUSBW2:11:112:11:116:00 10.0267ve2534WATERLOO
364.1044BOLLE PAUL-ANDRÉ53BELZATOPEK URBAN T2:11:162:11:166:00 10.0168ve2533VEDRIN
365.1659VANPOUCKE JEAN51BELCABWNAC2:11:242:11:246:00 10.0069ve2531SENEFFE
366.1369LALIEU YVES50BELTHE RUNNING NAT2:11:282:11:286:01 10.0070ve2530UCCLE
367.1149DEJONCKHEERE JEAN21BEL2:11:292:11:296:01 9.99124sen530ATH
368.1040BODART DENIS40BEL2:11:292:11:296:01 9.99108ve1529GÉRIN
369.923CEULEMANS NICOLAS44BELANTILOB2:11:332:11:336:01 9.99109ve1528INCOURT
370.1579ROSOUX LIONEL40BEL2:11:462:11:466:02 9.97110ve1526NAMUR
371.1390LECOMTE MICHEL54BELHEIN2:11:532:11:536:02 9.9671ve2525ASSESSE
372.1246FLAHAUX HUBERT41BEL2:11:542:11:546:02 9.96111ve1525BOITSFORT
373.1091CHOFFRAY SEBASTIEN33BELJUNG JIN TAEKWO2:11:552:11:556:02 9.96125sen524ONHAYE
374.1432MAQUET PHILIPPE36BEL2:11:552:11:556:02 9.96126sen524DINANT
375.1106COQUELET MICHEL55BELLA THURE2:11:562:11:566:02 9.9672ve2523SOLRE-LE-CHATEAU
376.1074CARACINI MARCELLO52ITAJOG'IN ATTITUDE2:11:572:11:576:02 9.9673ve2523FEXHE LE HAUT CLOCHER
377.1312HANOTTE JEAN54BEL2:11:592:11:596:02 9.9674ve2522NAMUR
378.1275GHEYSEN PATRICK61BELBEISBROEKLOPERS2:12:032:12:036:02 9.9525ve3521BRUGGE
379.691JADOT PIERRE54BELESMESM2:12:112:12:116:03 9.9475ve2519BUVRINNES
380.1010ARNOULD DAVID35BEL2:12:122:12:126:03 9.94127sen519BIOUL
381.1560ROBBEETS JORIS44BEL2:12:132:12:136:03 9.94112ve1519HAACHT
382.1586SATTA CONSTANTINO50BELUACUAC2:12:132:12:136:03 9.9476ve2518COUILLET
383.1105FCOOREMANS VÉRONIQUE45BELOCAN2:12:152:12:156:03 9.9415ai1517LEUZE
384.1519PIGNOLET PATRICE52BELOCAN2:12:152:12:156:03 9.9477ve2517GESVES
385.912GILSON RAYMOND56BELHRC2:12:312:12:316:04 9.9278ve2515SAINT-LEGER
386.1209DUCAT JOEL29BELRCNAMUR2:12:312:12:316:04 9.92128sen514AISCHE
387.1525PLOMB EDDY53BELJOGGIN2:12:332:12:336:04 9.9179ve2513MASNUY ST JEAN
388.890CHARLES STEPHANE40BELJC HERINNES2:12:352:12:356:04 9.91113ve1513HERINNES
389.1685WASLET HERVÉ44FRACMACHARLEVILLE MÉZ2:12:412:12:416:04 9.90114ve1512
390.1184DE THIER TANGUY50BELARCHACCRORUN2:12:422:12:426:04 9.9080ve2511CINEY
391.818BAUDUIN DIDIER47BELCABWNAC2:12:522:12:526:05 9.89115ve1509UCCLE
392.1540RACHART LOIC34BEL2:12:532:12:536:05 9.89129sen509MELLET
393.1625THONON GUILLAUME33BEL2:12:532:12:536:05 9.89130sen508WALCOURT
394.1503FPAAL MARGUERITE46BEL2:12:562:12:566:05 9.8916ai1508ANNEVOIE -ROUILLON
395.1462MEUNIER PASCAL51FRASOMMER2:13:042:13:046:05 9.8781ve2506STENAY
396.1337JACQMIN MICHEL56BELTAF2:13:092:13:096:05 9.8782ve2505AYE (MARCHE)
397.1416LOBET DOMINIQUE50BELTAF2:13:092:13:096:05 9.8783ve2505MARCHE-EN-FAMENNE
398.1438MARRAZZA RODOLPHE40BELARCH2:13:122:13:126:05 9.87116ve1504SART BERNARD
399.1001ABRAHAM CHRISTOPHE39BEL2:13:202:13:206:06 9.86131sen503CINEY
400.695DE DAPPER DAVID41BELCSFMYSTERE2:13:232:13:236:06 9.85117ve1502BRUXELLES
DNF: abandon; DSQ: disqualifié; Vitesse en km/h
04/08/2020 - 02:11 - 814 Entrées
ChronoRace - Electronic Timing SPRL
http://www.chronorace.be

Page 8 / 17  
La Descente de la Lesse
Course à pied Dinant, 31/08/2014, BEL
Delhalle - 21.9km - Classement
21.9km 
Catégorie
PosNrNomAgeIOCLigueEquipeRéelTempsTkmMoy.RangNomPtsLocalité
401.715FBENOIT BRIGITTE51BELUSBWMYSTERE2:13:232:13:236:06 9.857ai2501BRAINE-L'ALLEUD
402.1694NEMANN BRUNO34BEL2:13:272:13:276:06 9.85132sen500
403.1630TROQUAY JEAN-MARIE51BEL2:13:312:13:316:06 9.8484ve2500ARGENTEAU
404.1081CHALLE GÉRALD38BEL2:13:322:13:326:06 9.84133sen499SOMME-LEUZE
405.1007FARCQ JENNYFER26BEL2:13:322:13:326:06 9.8415dam498RIXENSART
406.1320HENQUINET QUENTIN25BELTRC2:13:322:13:326:06 9.84134sen498JAMBES
407.771COPET FABIAN42BELWAL'COURSE RAID2:13:432:13:436:07 9.83118ve1496THY-LE-CHATEAU
408.1113FCOURBET ANNICK49BELJC HSH2:13:452:13:456:07 9.8317ai1496FONTAINE L'ÉVÊQUE
409.1194FDION BERNADETTE51BELRCBG2:13:512:13:516:07 9.828ai2494VRESSE/SUR/SEMOIS
410.616NOEL GERARD62BELARCH2:13:542:13:546:07 9.8126ve3494NATOYE
411.1479MORREN JÉRÉMY24BELRHT2:13:552:13:556:07 9.81135sen493GREZ-DOICEAU
412.889LECRENIER BENJAMIN30BELRCNRCNAMUR2:13:582:13:586:07 9.81136sen493FRANIÈRE
413.1012AUDOOR ALAIN56BEL2:14:052:14:056:08 9.8085ve2491FRANES LEZ ANVAING
414.593DEMOULIN JOSE68BELBAIL RUN2:14:072:14:076:08 9.8027ve3490EVREHAILLES
415.1693BOUILLARD JULIEN30BEL2:14:102:14:106:08 9.79137sen490
416.1230ETIENNE XAVIER39BELMARA-THONNE ET 2:14:162:14:166:08 9.79138sen489THONNE
417.1480FMOUS TINEKE56NLDKNAUS.V. FORTUNA '62:14:182:14:186:08 9.789ai2488SINT-OEDENRODE
418.543LESTRATE OLIVIER34BELHEIN2:14:252:14:256:09 9.78139sen486ASSESSE
419.1131DE BROUWER JACQUES55BELGAG2:14:322:14:326:09 9.7786ve2485GRAND-LEEZ
420.457FMARGUINIO DANIELLE62BEL16502:14:322:14:326:09 9.771ai3485HEUSY
421.808FCHABEAU VINCIANE53BELANTILOB2:14:342:14:346:09 9.7610ai2484COURT SAINT ETIENNE
422.1251FORGET CYRIL38FRA2:14:352:14:356:09 9.76140sen484GIVET
423.1684WARGÉ EDDY45BELOCAN2:14:432:14:436:10 9.75119ve1482ANDENNE
424.1531PONCHAUT MICHAËL36BEL2:14:482:14:486:10 9.75141sen481VILLERS LA VILLE
425.967FURBAIN GINETTE62FRASPIBO2:14:542:14:546:10 9.742ai3480BELLIGNIES
426.1686FWATELET JENNY36BELMARA-THONNE ET 2:14:562:14:566:10 9.7416dam479THONNE
427.1338JACQUEMIN BENOIT44BELBATSTH2:15:032:15:036:10 9.73120ve1478ARVILLE
428.1546FRENARD DELPHINE32BELSMAC2:15:042:15:046:11 9.7317dam477PROFONDEVILLE
429.1097CNAEPKENS GREG30BEL2:15:072:15:076:11 9.72142sen477GRANDHAN
430.1198DISCLEZ ROMAIN29BEL2:15:112:15:116:11 9.72143sen476CINEY
431.575FVANWEDDINGEN ANNE51BELCSFMYSTERE2:15:132:15:136:11 9.7211ai2475BRUXELLES
432.1543FREGNIERS VALÉRIE48BELJOGGING PLUS SY2:15:172:15:176:11 9.7118ai1474
433.1523PIRLOT ANDRÉ63BELEPIDEMIE2:15:182:15:186:11 9.7128ve3474REMICOURT
434.1678VINDEVOGEL DOMINIQUE55BEL2:15:332:15:336:12 9.6987ve2472NAMUR
435.136FHAELTERMAN FLORENCE35BELSPT WAVRE2:15:482:15:486:13 9.6818dam469LIMAL
436.199ALAIME SEBASTIEN42BELSPTWSPTWAVRE2:15:492:15:496:13 9.68121ve1469LIMAL
437.1039BODART CLAUDE45BEL2:15:502:15:506:13 9.67122ve1468GRACE-HOLLOGNE
438.1077CASTERMAN FRANÇOIS32BEL2:15:512:15:516:13 9.67144sen468HABAY-LA-VIEILLE
439.812BATISTIC PATRICK50BELRONVAU2:15:562:15:566:13 9.6788ve2466NALINNES
440.485FERNANDEZ SALOR ALFONSO39BEL2:15:572:15:576:13 9.67145sen466RHODE SAINT GENESE
441.1668FVERCAMMEN KATY41BEL BRTC2:16:072:16:076:13 9.6519ai1464BRASSCHAAT
442.665LACAILLE GUY62BELIANTDTRIMIX_RUN2:16:102:16:106:14 9.6529ve3464NIVELLES
443.1049BOUILLON JEAN-MARC50BEL2:16:192:16:196:14 9.6489ve2462DINANT
444.1286FGODEFROID EDITH38BEL2:16:242:16:246:14 9.6319dam461YVOIR
445.1624THONON DENIS38BEL2:16:282:16:286:14 9.63146sen460TARCIENNE
446.1647FVANDER MASSEN HELENE26BEL2:16:292:16:296:14 9.6320dam460HOVES
447.1008ARDUIN TABARY29BEL2:16:302:16:306:14 9.63147sen459HOVES
448.1129FDE BACKER RACHEL46BEL2:16:382:16:386:15 9.6220ai1457HÉVILLERS
449.926GREVISSE DAVID40BEL2:16:392:16:396:15 9.62123ve1457CHAUMONT GISTOUX
450.1371LAMARCHE ALAIN52BEL2:16:432:16:436:15 9.6190ve2456PONDRÔME
DNF: abandon; DSQ: disqualifié; Vitesse en km/h
04/08/2020 - 02:11 - 814 Entrées
ChronoRace - Electronic Timing SPRL
http://www.chronorace.be

Page 9 / 17  
La Descente de la Lesse
Course à pied Dinant, 31/08/2014, BEL
Delhalle - 21.9km - Classement
21.9km 
Catégorie
PosNrNomAgeIOCLigueEquipeRéelTempsTkmMoy.RangNomPtsLocalité
451.1303GUILLAUME GODEFROID33BEL2:16:492:16:496:15 9.60148sen455MIECRET
452.1203DOTREMONT STÉPHANE40BEL2:16:532:16:536:16 9.60124ve1454WÉPION
453.1505PAPADATOS SPIRIDON44BEL2:16:532:16:536:16 9.60125ve14545100
454.1232EVRARD DAMIEN38BEL2:16:542:16:546:16 9.60149sen453GENDRON-CELLES
455.1576RONVEAUX ALAIN56BELOCAN2:16:562:16:566:16 9.6091ve2453ANDENNE
456.1488NAVET PIERRE51BEL2:16:562:16:566:16 9.6092ve2452ACHET
457.1515PETIT FRANCOIS30BEL2:17:012:17:016:16 9.59150sen451CUSTINNE
458.1054BOUVIER ENGUERRAN26BEL2:17:092:17:096:16 9.58151sen450COURT-ST-ETIENNE
459.66FGEVENOIS MARIE-ROSE64BELUAC2:17:122:17:126:16 9.583ai3449LES BONS VILLERS
460.67FERAUCHE JEAN-MARIE65BELUAC2:17:122:17:126:16 9.5830ve3449LES BONS VILLERS
461.1637VANCOPPENOLLE THIERRY43BEL2:17:132:17:136:16 9.58126ve1448RENAIX
462.664FBONFOND BERENGERE46BELSPTW2:17:142:17:146:16 9.5821ai1447WAVRE
463.1334ICKET ERIK58BELARCH2:17:202:17:206:17 9.5793ve2446
464.1249FOBE JEAN-JACQUES48BELENJAMBÉE2:17:282:17:286:17 9.56127ve1445KRAAINEM
465.1646VANDEPOELE DAMIEN50BELGAG GEMBLOUX2:17:392:17:396:18 9.5594ve2443SPY
466.419POSKIN BERNARD63BELMSF2:17:452:17:456:18 9.5431ve3442PERONNES-LEZ-BINCHE
467.1165FDEMIN LIEVE47BELMYSTERE2:17:452:17:456:18 9.5422ai1442VORST
468.666FPANFILI DANIELA43BELENJAMBEE2:17:542:17:546:18 9.5323ai1440BRUXELLES
469.1405LESOIL PHILIPPE47BELENJAMBEE2:17:542:17:546:18 9.53128ve1440BRUXELLES
470.1100COCU JEAN-LUC62BELPRFM2:18:112:18:116:19 9.5132ve3437P2RUWELZ
471.1163DELWICHE BENOÎT60BEL2:18:152:18:156:19 9.5033ve3436JAMBES
472.692ROBERT MICHEL64BELBOUFFIOLS&GERPI2:18:192:18:196:19 9.5034ve3435GERPINNES
473.359WILLEM JONATHAN36BELCPMV2:18:332:18:336:20 9.48152sen433MARCINELLE
474.1452MCGAHAN HUGH58GBR2:18:352:18:356:20 9.4895ve2432BRUXELLES
475.1629TIXHON AXEL42BEL2:18:422:18:426:20 9.47129ve1431DINANT
476.1120DABE YVES47BEL2:18:482:18:486:21 9.47130ve1430LIBRAMONT
477.1080CEUPPENS PATRICK58BELBVL2:18:502:18:506:21 9.4696ve2430HALLE
478.1507PAQUET LUC45BEL2:19:032:19:036:21 9.45131ve1428ROCHEFORT
479.1433MARCHAND ERIC40BEL2:19:092:19:096:22 9.44132ve1426SPY
480.252FGEORGE NATHALIE35BELSMACRCNAMUR2:19:112:19:116:22 9.4421dam426BELGRADE
481.1248FLORENT XAVIER36BELARCHARCH CINEY2:19:172:19:176:22 9.43153sen425NAMUR
482.1316HASSAN KARIM36BEL2:19:262:19:266:22 9.42154sen423DINANT
483.1114CRONET BERNARD41BEL2:19:312:19:316:23 9.42133ve1422LOYERS
484.561HAINAUT CHARLES55BEL2:19:412:19:416:23 9.4197ve2420GERPINNES
485.1104CONSEQUENCE BERTRAND48BELBERTO2:19:562:19:566:24 9.39134ve1418MONS
486.1440MARTIAL MARC53BELRCNAMUR2:20:042:20:046:24 9.3898ve2417NAMUR
487.1058BREHAIN DAVID40BEL2:20:042:20:046:24 9.38135ve1416ECAUSSINNES
488.247LEONET MAXIME40BELRCBG2:20:052:20:056:24 9.38136ve1416HAUT-FAYS
489.76FMORRIS NICOLA-ELIZABETH54BELENJAMBEE2:20:182:20:186:25 9.3712ai2414BRUXELLES
490.1151DELANNOY SERGE36BEL2:20:182:20:186:25 9.37155sen414FORVILLE
491.1553FRICHARD MARIE-ANNE51BELRICHARDS2:20:252:20:256:25 9.3613ai2412DINANT
492.138SORNASSE PASCAL55BELSMAC2:20:402:20:406:26 9.3499ve2410BEUZET
493.49DEGROOT JEAN66BELFCHAHANNUT2:20:492:20:496:26 9.3335ve3409HANNUT
494.1226EGGERMONT GUY68BEL2:20:492:20:496:26 9.3336ve3408MEISE
495.696LECLEF SEBASTIEN34BELCSFMYSTERE2:20:532:20:536:26 9.33156sen407FOREST
496.1060BRIFFEUIL PASCAL51BELRCNAMUR2:20:572:20:576:27 9.32100ve2406NAMUR
497.1261GABRIEL FRÉDÉRIC39BELARCH2:21:312:21:316:28 9.29157sen402
498.1425LUPCIN GERARD48BEL2:21:392:21:396:29 9.28137ve14015580
499.1566ROBERT PASCAL48BEL2:21:402:21:406:29 9.28138ve1400NASSOGNE
500.464VIDICK JEAN-LUC61BELCACE2:21:412:21:416:29 9.2737ve3399BRUXELLES
DNF: abandon; DSQ: disqualifié; Vitesse en km/h
04/08/2020 - 02:11 - 814 Entrées
ChronoRace - Electronic Timing SPRL
http://www.chronorace.be

Page 10 / 17  
La Descente de la Lesse
Course à pied Dinant, 31/08/2014, BEL
Delhalle - 21.9km - Classement
21.9km 
Catégorie
PosNrNomAgeIOCLigueEquipeRéelTempsTkmMoy.RangNomPtsLocalité
501.1235FALQUE JOHN41BELRCNAMUR2:21:412:21:416:29 9.27139ve1399FLAWINNE
502.218FALEXANDRE FRANCOISE59BELMYSTERE2:21:412:21:416:29 9.2714ai2399VEDRIN
503.1067BUREAU LAURENT39FRA2:21:552:21:556:29 9.26158sen397MAING
504.1272GEORGES ALEXIS39BEL2:22:162:22:166:30 9.24159sen394NIVELLES
505.1050BOULANGER ETIENNE39BEL2:22:162:22:166:30 9.24160sen393NIVELLES
506.723PIERRE CORENTIN16BELCSDY2:22:272:22:276:31 9.236esp392RAMILLIES
507.1192DI CATALDO MICHEL55ITA2:22:412:22:416:31 9.21101ve2389THY LE CHATEAU
508.372FLEBEAU MARIANNE50BELUSBWMYSTERE2:22:422:22:426:31 9.2115ai2389RHODE SAINT GENESE
509.1062BROGNIEZ FABRICE53BELJCSA2:22:442:22:446:32 9.21102ve2388PÉRUWELZ
510.1059FBRIES INGRID47BELARCH2:22:442:22:446:32 9.2124ai1388SART BERNARD
511.1491NEYMAN PASCAL46BEL2:23:032:23:036:32 9.19140ve1385SAINT-GÉRARD
512.1135DECLERCQ PIERRE46BEL2:23:272:23:276:34 9.16141ve1382SIVRY
513.1267FGAUTHIER SYLVIE29BELCARACO' TRAILER2:23:292:23:296:34 9.1622dam382GESVES
514.1575RONDAY NICOLASBEL2:23:512:23:516:35 9.142xxx378MONTBLIART
515.1162FDELVAUX SYLVIE38BELDÉDÉ FOULÉES2:24:182:24:186:36 9.1123dam375ERPENT
516.1565ROBERTI DE WINGHE THIBAUT27BELROBERTI RUNNERS2:24:212:24:216:36 9.10161sen374DION-VALMONT
517.1446MATERNE JULIEN41BEL2:24:402:24:406:37 9.08142ve1372PERWEZ
518.1115CRONET ETIENNE46BELTROTRO2:24:402:24:406:37 9.08143ve1371WIERDE
519.1101FCOLINET MATHILDE23BELSMAC2:24:452:24:456:37 9.0824dam370HASTIÈRE
520.1169FDE MOREAU MONIQUE50BELARCH2:24:462:24:466:37 9.0816ai2370HAVERSIN
521.1328HOTAT MICHEL45BELJAMES2:24:522:24:526:37 9.07144ve1368VILLERS-LA-VILLE
522.1447MATHIEU JEAN PIERRE58BELESM2:24:572:24:576:38 9.07103ve2367COUILLET
523.124LE CHARLIER BAUDOUIN64BEL2:25:082:25:086:38 9.0538ve3366NAMUR
524.344VANDEVELDE OSCAR58BELJAMES2:25:132:25:136:38 9.05104ve2365BRUXELLES
525.1464MEUWIS FRÉDÉRIC42BEL2:25:142:25:146:38 9.05145ve1364GEMBLOUX
526.1571ROLAND FRANÇOIS35BEL2:25:232:25:236:39 9.04162sen363LEIGNON
527.1157DELLOYE RUDI46BEL2:25:242:25:246:39 9.04146ve1362MIÉCRET
528.1030BIERNAUX KEVIN22BEL2:25:252:25:256:39 9.04163sen362LASNE
529.1093CHRISTOPH CHARLES44BEL2:25:302:25:306:39 9.03147ve1361OTTIGNIES
530.970FTUMELAIRE SOPHIE47BELJAMES2:25:322:25:326:39 9.0325ai1360RAMILLIES
531.1641VANDEMEULEBROECKE ANDRÉ53BEL2:25:362:25:366:39 9.03105ve2359LOUVAIN-LA-NEUVE
532.1513FPERRIN CHRISTELLE43FRACMACHARLEVILLE MÉZ2:25:372:25:376:39 9.0226ai1359
533.1173DENIS OLIVIER33BEL2:25:392:25:396:40 9.02164sen358HENNUYERES
534.1600SLUYS DIDRIC28BEL2:25:392:25:396:40 9.02165sen358ENGHIEN
535.1475FMOHIMONT NATHALIE45BELRCNAMUR2:25:402:25:406:40 9.0227ai1357COURRIÈRE
536.1029BIERNAUX BENOIT53BELRCNAMUR2:25:402:25:406:40 9.02106ve2357NAMUR
537.1375FLAMBILLION JENNY35BEL2:25:482:25:486:40 9.0125dam355LUSTIN
538.1657FVAN LOOK CARINE42BEL2:25:512:25:516:40 9.0128ai1355COGNELÉE
539.1186DETROZ GUY50BELJC MONTAGNARD2:25:562:25:566:40 9.00107ve2354MONT-SUR-MARCHIENNE
540.1539FQUERTINIER ANNE-LAURE38BEL2:25:592:25:596:40 9.0026dam353NAMUR
541.1211FDUCHENE MICHELLE48BELSMAC2:26:012:26:016:41 9.0029ai1352JAMBES
542.209GODEFRIDI THIERRY63BELMARATHONIEN2:26:032:26:036:41 9.0039ve3352RIXENSART
543.1584SAMAIN JEAN-LUC54BELGAG2:26:052:26:056:41 8.99108ve2351COROY LE CHATEAU
544.1363LABYE PIERRE55BELTEAM LES BOURS2:26:072:26:076:41 8.99109ve2350AMAY
545.1450FMATTHIEU FABIENNE49BELENJAMBÉE2:26:072:26:076:41 8.9930ai1350BRUXELLES
546.1277GILLAERTS HENRI63BEL2:26:092:26:096:41 8.9940ve3349DILBEEK
547.1143DEFRAENE PATRICK52BELANTILOB2:26:112:26:116:41 8.99110ve2349NODEBAIS
548.1028FBEUN MAGALI41BELANTILOB2:26:122:26:126:41 8.9931ai1348TOURINNES LA GROSSE
549.1310HAMBACH LIONEL33BEL2:26:122:26:126:41 8.99166sen347FLEMALLE
550.1208DUBUISSON JACQUES61BEL2:26:142:26:146:41 8.9941ve3347LOVERVAL
DNF: abandon; DSQ: disqualifié; Vitesse en km/h
04/08/2020 - 02:11 - 814 Entrées
ChronoRace - Electronic Timing SPRL
http://www.chronorace.be

Page 11 / 17  
La Descente de la Lesse
Course à pied Dinant, 31/08/2014, BEL
Delhalle - 21.9km - Classement
21.9km 
Catégorie
PosNrNomAgeIOCLigueEquipeRéelTempsTkmMoy.RangNomPtsLocalité
551.1128DAVE LAURENT41BELNOMADE2:26:212:26:216:41 8.98148ve1346ACHET
552.683DE LEENER JEAN-MARIE60BELCABWNAC2:26:222:26:226:41 8.9842ve3345LOT
553.1273FGÉRARD LAETITIA36BEL2:26:232:26:236:42 8.9827dam345VILLERS-LE-TEMPLE
554.1530POLLINA GIOVANNI50ITACHICKEN RUN2:26:232:26:236:42 8.98111ve2344VILLERS LE TEMPLE
555.1377LAMBIN SÉBASTIEN44BEL2:26:252:26:256:42 8.98149ve1344DAVE
556.1025FBERTRAND ANNE47BEL2:26:252:26:256:42 8.9732ai1343TIHANGE
557.1621FTHIRY FABIENNE49BELRUNNING TEAM CO2:26:252:26:256:42 8.9733ai1343MARCHIN
558.1317HAUTPHENNE ERIC53BEL2:26:252:26:256:42 8.97112ve2342HERON
559.623PISCART PIERRE54BELMOHAFORESTIERE2:26:282:26:286:42 8.97113ve2342HAVRE
560.1649VAN DE VELDE DOCTEUR JÉ28BEL2:26:292:26:296:42 8.97167sen341NAMUR
561.1335IOVINE DANIELE45BEL2:26:302:26:306:42 8.97150ve1341JUMET
562.1396LEGRAND CHRISTOPHE37BEL2:26:332:26:336:42 8.97168sen340GENAPPE
563.377FSLIWINSKI SYLVIANNE56BEL2:26:352:26:356:42 8.9617ai2339JEMEPPE SUR SAMBRE
564.1146DEGRAUX FABRICE45BELJAMES2:26:402:26:406:42 8.96151ve1338LOUVAIN LA NEUVE
565.1183DETHIER FRÉDÉRIC33BEL2:26:422:26:426:42 8.96169sen338
566.1177DERAMAIX FABRICE49FRACMACHARLEVILLE MÉZ2:26:432:26:436:42 8.96152ve1337
567.1687FWERION CÉCILE57BELLA THURE2:27:052:27:056:43 8.9318ai2334SOLRE ST GÉRY
568.1516PFEUTY PATRICE61FRA2:27:152:27:156:44 8.9243ve3333CHARLY ORADOUR
569.157ORANGE TOM42BEL2:27:172:27:176:44 8.92153ve1332MONTENAKEN
570.56PIERRE STÉPHANE48BEL2:27:192:27:196:44 8.92154ve1331RAMILLIES
571.437EHLINGER ALAIN62BELAVT2:27:222:27:226:44 8.9244ve3330BERCHEM
572.1410LIBOIS OLIVIER45BELRCNAMUR2:27:322:27:326:45 8.91155ve1329ANDENNE
573.1492NIGOT FRANCIS55BEL2:27:322:27:326:45 8.91114ve2329SPY
574.1411FLIBOIS SOPHIE44BELRCNAMUR2:27:322:27:326:45 8.9134ai1328ANDENNE
575.1554FRICHARD MARIE-PAULE54BELRICHARDS2:27:402:27:406:45 8.9019ai2327DINANT
576.1613SWENNEN GILBERT64BELHUY2:27:442:27:446:45 8.8945ve3326HUY
577.663HOSTE PETER52BELVOLH2:27:482:27:486:45 8.89115ve2325BEVEREN
578.1541RAUSCH RAPHAEL35BELLET'S GAUME2:28:002:28:006:46 8.88170sen324FLORENVILLE
579.1583SALMON WALTER44BEL2:28:002:28:006:46 8.88156ve1323PESSOUX
580.1483MURILLO MANUEL50BELNEUPRE2:28:062:28:066:46 8.87116ve2322SERAING
581.1655VANKERM OLIVIER42BEL2:28:102:28:106:46 8.87157ve1321RAMILLIES
582.42PONLOT LOUIS51BELBAIL RUN2:28:202:28:206:47 8.86117ve2319ONHAYE
583.1288GOFFINET JEAN-MICHEL60BEL2:28:352:28:356:48 8.8446ve3317JEMELLE
584.1408FLHOEST PASCALE46BEL2:28:402:28:406:48 8.8435ai1316ORP JAUCHE
585.1276GILBERT PHILIPPE51BEL2:28:422:28:426:48 8.84118ve2316LOUVAIN-LA-NEUVE
586.1636VANCOMPERNOLLE KOEN49BELTORRACTORRAC2:28:492:28:496:48 8.83158ve1314TORHOUT
587.826FLAMERANT CHANTAL50BELOXYGENE2:28:512:28:516:48 8.8320ai2314BIERCEE
588.1119FDABE FABIENNE51BEL2:28:522:28:526:48 8.8321ai2313NEUFCHATEAU
589.1665FVANWYNSBERGHE ALINE22BELJAMES2:29:022:29:026:49 8.8228dam312WALHAIN
590.383MAGOTTE OLIVIER42BELJAMES2:29:182:29:186:50 8.80159ve1310NIVELLES
591.1356FJUSZCZAK JOANNA32FRA2:29:242:29:246:50 8.8029dam309ALSEMBERG
592.1087CHEVALIER JEAN-BAPTISTE33FRA2:29:242:29:246:50 8.80171sen308ALSEMBERG
593.434HENROTTIN PIERRE50BEL2:29:302:29:306:50 8.79119ve2307LIMBOURG
594.1365LADURON ROLAND35BELJDA2:29:312:29:316:50 8.79172sen307VER CUSTINNE
595.1175DEPAYE PIERRE YVES52BEL2:29:382:29:386:50 8.78120ve2305OHEY
596.1088CHEVALIER JEAN LUC48BELPRLN JOGGING CL2:29:462:29:466:51 8.77160ve1304SENEFFE
597.1639VANDEKEERE GREGORY27BEL2:30:032:30:036:52 8.76173sen302CHATELET
598.1252FORGET RÉGINALD48BEL2:30:032:30:036:52 8.76161ve1301BELGRADE
599.1414LIFRANGE MARC-OLIVIER45BELENJAMBEE2:30:052:30:056:52 8.76162ve1301BRUXELLES
600.1215DUMON GINO38BELACO2:30:202:30:206:52 8.74174sen299OUDENBURG
DNF: abandon; DSQ: disqualifié; Vitesse en km/h
04/08/2020 - 02:11 - 814 Entrées
ChronoRace - Electronic Timing SPRL
http://www.chronorace.be

Page 12 / 17  
La Descente de la Lesse
Course à pied Dinant, 31/08/2014, BEL
Delhalle - 21.9km - Classement
21.9km 
Catégorie
PosNrNomAgeIOCLigueEquipeRéelTempsTkmMoy.RangNomPtsLocalité
601.1333HUBLET PHILIPPE54BEL2:30:252:30:256:53 8.74121ve2297BARONVILLE
602.1484NAGELS ALAIN54BEL2:30:282:30:286:53 8.73122ve2297MOLENBEEK
603.1683WALTENS MARC52BEL2:30:282:30:286:53 8.73123ve2296BRUXELLES
604.1110CORSWAREM PIERRE-HENRI28BELWAC2:30:322:30:326:53 8.73175sen296FAIMES
605.709PENSIS HENRI57BELRCNAMUR2:30:332:30:336:53 8.73124ve2295NAMUR
606.1079FCAUZ SOPHIE45BEL2:30:452:30:456:54 8.7236ai1293RIVIÈRE
607.1212DUFAUX ADRIEN19BEL2:30:462:30:466:54 8.727esp293FLOREFFE
608.91GEERAERTS JOS54BELCSFMYSTERE2:30:482:30:486:54 8.71125ve2292BUIZINGEN
609.1003ALFANO PINO45BEL2:30:492:30:496:54 8.71163ve1292SOUMAGNE
610.1189DEWINT JOS65BEL2:30:512:30:516:54 8.7147ve3291BRUXELLES
611.40COMANDINI LUCIANO58BELUACRRTC2:30:522:30:526:54 8.71126ve2290MONTIGNIES-SUR-SAMBRE
612.64DEWIGNE BERNARD57BELCSDY2:31:162:31:166:55 8.69127ve2287OTTIGNIES
613.1005ANGÉLY GAËTAN67BELWATERLOO RUNNER2:31:192:31:196:55 8.6848ve3287WATERLOO
614.1265GARCIA JOSE-LUIS53BEL2:31:262:31:266:55 8.68128ve2285JUMET
615.922BADO MATHIEU31BELRCNAMUR2:31:282:31:286:55 8.68176sen285LES ISNES
616.1512FPERCHENET LISA25FRA2:31:312:31:316:56 8.6730dam284PARIS
617.1395LE GAL BENOIT45FRACEFOR NAMUR2:31:362:31:366:56 8.67164ve1283FLOREFFE
618.1229ERNOULD ALAIN49BEL2:31:432:31:436:56 8.66165ve1282ROMEDENNE
619.792BONTE PHILIPPE57BELJOGGANS2:31:432:31:436:56 8.66129ve2281BRUXELLES
620.1662VAN ROOIJ PETER49NLDKNAUS.V. FORTUNA '62:31:472:31:476:56 8.66166ve1280SINT-OEDENRODE
621.1609STENHOUSE ALEC51GBRRUNPRO2:32:032:32:036:57 8.64130ve2278PROFONDEVILLE
622.1204DOYEN MARC63BELRUNPRO2:32:042:32:046:57 8.6449ve3278BOIS-DE-VILLERS
623.301QUINET JEAN PAUL64BELFLEU2:32:052:32:056:57 8.6450ve3277GILLY
624.360PETITJEAN FABIAN39BEL2:32:082:32:086:57 8.64177sen276BRUXELLES
625.1472FMOELTER ERIKA41BELFLEU2:32:282:32:286:58 8.6237ai1274VITRIVAL
626.1298GRIEZ JEAN-PIERRE63BEL2:32:292:32:296:58 8.6251ve3273MONS
627.966GRANDFILS ERIC57FRASPIBO2:32:422:32:426:59 8.61131ve2271BELLIGNIES
628.1154DELECLUSE MARTIN25BEL2:33:102:33:107:00 8.58178sen268FERNELMONT
629.953FWANSARD MARIE31BELRCBG2:33:172:33:177:00 8.5731dam267HAUT-FAYS
630.1420FLOOP AUDREYFRAEJCAJURA2:33:252:33:257:01 8.573xxx266
631.1139DECRETON CÉDRIC41BEL2:33:312:33:317:01 8.56167ve1265BRUXELLES
632.1598SIDERIUS RUFUS45BEL2:33:332:33:337:01 8.56168ve12645020
633.1357KEGELS LAURENT43BELHIS2:33:352:33:357:01 8.56169ve1263BRUXELLES
634.1027FBETTONVILLE ANNICK49BEL2:33:472:33:477:02 8.5438ai1262WIERDE
635.1458MELOTTE JEAN MARC46BEL2:33:482:33:487:02 8.54170ve1261WIERDE
636.1645VANDENEYNDE YVAN60BELJOGGING PLUS SY2:33:512:33:517:02 8.5452ve3260
637.208BOUTEFEU JACQUES54BELESMRRTC2:33:532:33:537:02 8.54132ve2260FARCIENNES
638.1517FPIERARD MARTINE54BELJOGGING PLUS SY2:33:532:33:537:02 8.5422ai2259
639.100BERTRAND NICOLAS30BELRRTC2:33:592:33:597:02 8.53179sen258BOIS DE VILLERS
640.1134DECLERC JEAN-FRANCOIS43BEL2:34:082:34:087:03 8.53171ve1257WÉPION
641.1617TERRYN FRANCOIS39BEL2:34:082:34:087:03 8.53180sen256NAMUR
642.746MEULEMEESTER PATRICK49BELFBFATJACO2:34:092:34:097:03 8.52172ve1256MACQUENOISE
643.1022BERTHON ROMAIN32BEL2:34:142:34:147:03 8.52181sen255
644.1605FSOUCY MANO31BEL2:34:152:34:157:03 8.5232dam255
645.1061BRILOT FRANCY48BEL2:34:162:34:167:03 8.52173ve1254BANDE
646.978COLMANT AURELIEN31BELJC INCOURT2:34:312:34:317:04 8.50182sen252JODOIGNE
647.1465MEWIS MARC63BEL2:34:332:34:337:04 8.5053ve3251BALEN
648.1459MERCANTE GIOVANNI36BELDLGL2:35:132:35:137:06 8.47183sen246MONTIGNY LE TILLEUL
649.186FHILLEN HILDE46BELAVN2:35:172:35:177:06 8.4639ai1245MEER
650.793DELEU GABRIEL63BELEPIDEMIE2:35:372:35:377:07 8.4454ve3243REMICOURT-HODEIGE
DNF: abandon; DSQ: disqualifié; Vitesse en km/h
04/08/2020 - 02:11 - 814 Entrées
ChronoRace - Electronic Timing SPRL
http://www.chronorace.be

Page 13 / 17  
La Descente de la Lesse
Course à pied Dinant, 31/08/2014, BEL
Delhalle - 21.9km - Classement
21.9km 
Catégorie
PosNrNomAgeIOCLigueEquipeRéelTempsTkmMoy.RangNomPtsLocalité
651.368VIAENE BERNARD69BELHERV2:35:372:35:377:07 8.4455ve3243HERVE
652.1255FFOULON MARIE PAULE55BELRCNAMUR2:35:422:35:427:07 8.4423ai2242
653.932FBONNET DOROTHEE48BELPRFM2:35:512:35:517:07 8.4340ai1240ROUCOURT
654.1431MALAISE DIDIER46BEL2:35:522:35:527:07 8.43174ve1240HOUYET
655.1051BOURGEOIS PHILIPPE53BELCOURIR POUR LE 2:35:572:35:577:08 8.43133ve2239SOUMAGNE
656.1631VAESSEN LUC52BEL2:35:582:35:587:08 8.43134ve2238OLNE
657.879FGEERAERTS MAGALI26BELCSFMYSTERE2:36:012:36:017:08 8.4233dam238BUIZINGEN
658.1324HERGOT OLIVIER38BELAG INSURANCE RU2:36:162:36:167:09 8.41184sen235LIEDEKERKE
659.971VANHEES JEAN-LOUIS61BELGAG2:36:172:36:177:09 8.4156ve3235PERWEZ
660.150THIROT ALAIN56BELJOGGANS2:36:282:36:287:09 8.40135ve2233ANDERLECHT
661.1404LEQUENNE OLIVIER40BEL2:36:372:36:377:10 8.39175ve1232WARISOULX
662.1567FROBERT VALÉRIE41FRASPORT HABITAT2:36:532:36:537:10 8.3841ai1230
663.1580FRUS STÉPHANIE49FRASPORT HABITAT2:36:542:36:547:10 8.3842ai1229
664.1561ROBERT CYRIL41FRASPORT HABITAT2:36:542:36:547:10 8.38176ve1229
665.875FMARQUET GINETTE58BEL2:37:152:37:157:11 8.3624ai2226POLLEUR
666.1264GAMBINO PIETRO61ITAGAMBINOTEAM2:37:162:37:167:11 8.3657ve3226CHARLEROI
667.1263GAMBINO GIOVANNI30ITA2:37:162:37:167:11 8.36185sen225ROUX
668.1041FBODEUX CLAIRE47BELJAMES2:37:202:37:207:12 8.3543ai1224OTTIGNIES
669.174FBAWIN BRIGITTE61BELJAMES2:37:242:37:247:12 8.354ai3224BOUSVAL
670.590BALSAT PHILIPPE51BELBJB2:37:262:37:267:12 8.35136ve2223HAINE SAINT PIERRE
671.1444MASY HENRI60BELRT BRAIVES2:37:342:37:347:12 8.3458ve3222DARION
672.1344JAQUES HANS49BELTORRAC2:37:352:37:357:12 8.34177ve1221TORHOUT
673.1437FMAROT CAROLINE40BEL2:37:462:37:467:13 8.3344ai1220FLAWINNE
674.1037BOBY MICHEL47FRAEJCAJURA2:37:482:37:487:13 8.33178ve1219
675.1607STANDAR MICHAEL58SWESVANVIK RC2:37:512:37:517:13 8.32137ve2218ETTERBEEK
676.1095FCIOLACU OLESEA30MDAJAMES2:37:552:37:557:13 8.3234dam217LLN
677.1660FVAN PUYVELDE THERESE56BEL2:37:582:37:587:13 8.3225ai2217MONT SUR MARCHIENNE
678.1278GILLES JEAN-PIERRE63BELJC MONTAGNARD2:37:582:37:587:13 8.3259ve3216MONTIGNY-LE-TILLEUL
679.1430MAIRIAUX STEVE41BELJCM2:37:582:37:587:13 8.32179ve1216CHARLEROI
680.192GEUSKENS JEAN MARC50BEL2:38:292:38:297:15 8.29138ve2212BRUXELLES
681.1268FGENET MAGALI37BEL2:38:342:38:347:15 8.2935dam211DION VALMONT
682.1468FMICHEL EVELYNE37BEL2:38:412:38:417:15 8.2836dam210MARCHE
683.1558FRIZZERIO-DEVIS LAURA54ITAJAMES2:38:482:38:487:16 8.2826ai2209LAOUVAIN-LA-NEUVE
684.1309HALLET PHILIPPE43BELL'AVENIR2:38:552:38:557:16 8.27180ve1208WOMMERSOM
685.1581SABLON DOMINIQUE44BELCRAC2:39:032:39:037:16 8.26181ve1206FORCHIES-LA-MARCHE
686.1301GROSSE PASCAL49BELROTARY HASTIERE2:39:212:39:217:17 8.25182ve1204HASTIERE
687.1692FZYLA SOPHIE34BELJCPMF2:39:262:39:267:17 8.2437dam203GRANDHAN
688.1289GOHY JEAN-PIERRE51BELJCPMF2:39:262:39:267:17 8.24139ve2203MARENNE
689.1386LE BUSSY ROGER51BELJAMES2:39:262:39:267:17 8.24140ve2202LIMAL
690.182FBAETEN EDITH54BELRCNAMUR2:39:322:39:327:18 8.2427ai2201NAMUR
691.52GENDARME PHILIPPE49BEL2:39:362:39:367:18 8.23183ve1201VEDRIN
692.232MANFROID POL67BELJOGGANS2:40:072:40:077:19 8.2160ve3197BRUXELLES
693.1293GORNIAK ALAIN60BELJC HSH2:40:112:40:117:19 8.2061ve3196FONTAINE L'ÉVÊQUE
694.1138FDECOCQ FRANCOISE49BELJAMES2:40:182:40:187:20 8.2045ai1195OTTIGNIES
695.1121FDADOUMONT ALIX22BEL2:40:472:40:477:21 8.1738dam191MARCHIN
696.1122DADOUMONT BENOÎT52BEL2:40:472:40:477:21 8.17141ve2191MARCHIN
697.1669VERCRUYSSE VINCENT54BELASPUB2:40:592:40:597:22 8.16142ve2189BRUXELLES
698.1528POLIART CLAUDE51BELARCH2:41:072:41:077:22 8.16143ve2188CELLES
699.1325HERMAN PHILIPPE57BELARCH2:41:122:41:127:22 8.15144ve2187MIÉCRET
700.1383FDELLOUE LAURIE29BELSPEED X TRI TEA2:41:132:41:137:22 8.1539dam187TARCIENNE
DNF: abandon; DSQ: disqualifié; Vitesse en km/h
04/08/2020 - 02:11 - 814 Entrées
ChronoRace - Electronic Timing SPRL
http://www.chronorace.be

Page 14 / 17  
La Descente de la Lesse
Course à pied Dinant, 31/08/2014, BEL
Delhalle - 21.9km - Classement
21.9km 
Catégorie
PosNrNomAgeIOCLigueEquipeRéelTempsTkmMoy.RangNomPtsLocalité
701.1653VANELSLANDER RINUS52BEL2:41:152:41:157:22 8.15145ve2186BRUXELLES
702.1274GEVENOIS FRANK52BELJC BAUDJC BAUDOUR2:41:232:41:237:23 8.14146ve2185MONS
703.1623THONNARD MICHAEL38BELL'ORVAL J'AVALE2:41:272:41:277:23 8.14186sen184ESCANAFFLES
704.1047BOUDET PIERRE66FRAEVEIL MENDOIS L2:41:322:41:327:23 8.1362ve3183
705.560DENIS MARCEL69BELRONVAU2:41:432:41:437:24 8.1363ve3182OTTIGNIES
706.217FTULPINCK GISELE53BELJAMES2:41:442:41:447:24 8.1228ai2181WALHAIN
707.1329HOUBART CHARLES40BELRCNAMUR2:41:502:41:507:24 8.12184ve1180JAMBES
708.1347JAUCOT SIMON20BEL2:42:082:42:087:25 8.10187sen178GENVAL
709.1218DUQUESNE GUILLAUME21BEL2:42:082:42:087:25 8.10188sen177GENVAL
710.527ARNOULD EDOUARD60BELENJAMBEE2:42:152:42:157:25 8.1064ve3176WOLUWE ST LAMBERT
711.1103COLSON JEAN-POL58BELSERUNNER2:42:222:42:227:25 8.09147ve2175MARCHIN
712.1418LOMBARD CHRISTIAN46BELBC MANAGE2:42:292:42:297:26 8.09185ve1174LA LOUVIERE
713.1676FVERSTRAETE FRANÇOISE55BEL2:42:352:42:357:26 8.0829ai2173FLOREFFE
714.667FMASSART MARYN19BELSMACRCNAMUR2:42:542:42:547:27 8.071esf171PROFONDEVILLE
715.1442MASSART CORENTIN17BELSMACRCNAMUR2:42:542:42:547:27 8.078esp170PROFONDEVILLE
716.1461METZ JEAN CLAUDE55FRA2:43:022:43:027:27 8.06148ve2169RETONFEY
717.1398FLE LAN CHANTAL56FRA2:43:022:43:027:27 8.0630ai2168RETONFEY
718.1538PÂQUES MATTEO23BELRIENRIEN2:43:222:43:227:28 8.04189sen166COURT ST ETIENNE
719.7FHENNERESSE ISABELLE44BELJOGGANS2:43:342:43:347:29 8.0346ai1164GEDINNE
720.798FDEBONI MALORIE30BELCSFMYSTERE2:43:402:43:407:29 8.0340dam163UCCLE
721.797FSTIENON CATHERINE43BELCSFMYSTERE2:43:402:43:407:29 8.0347ai1163UCCLE
722.686FLIGNY CAROLINE53BELCSFMYSTERE2:43:402:43:407:29 8.0331ai2162BRUXELLES
723.1451MCCARTHY MICHAEL66GBR2:43:442:43:447:29 8.0365ve3162BRUXELLES
724.1020FBERNARD MYRIAM56BELJCPMC2:43:472:43:477:29 8.0232ai2161RANCE
725.1206FDROMZEE NADINE36FRA2:43:532:43:537:29 8.0241dam160FROMELENNES
726.706TURPIN PHILIPPE63BEL2:43:542:43:547:30 8.0266ve3159WASSEIGES
727.1066FBULTYNCK BERNADETTE68BELMEELOPERS MEISE2:44:082:44:087:30 8.015ai3158MEISE
728.1366FLAENEN LINDA51BEL2:44:102:44:107:30 8.0033ai2157KAPELLEN
729.257LUKOJ-NAWEJ JIM62BELIXEL2:44:112:44:117:30 8.0067ve3156BRUXELLES
730.1486NAVAUX PIERRE51BEL2:44:502:44:507:32 7.97149ve2152MIGNAULT
731.1400LEMANS JEAN-MICHEL57BELBEAUDETS DINANT2:45:112:45:117:33 7.96150ve2149DINANT
732.1495NOIRÉ OLLIVIER60FRA2:45:212:45:217:33 7.9568ve3148METZ
733.145GRANDMONT ANTONIN23BELARCHARCH CINEY2:45:222:45:227:34 7.95190sen147DINANT
734.127GRANDMONT ANDRE53BELARCHARCH CINEY2:45:222:45:227:34 7.95151ve2147DINANT
735.1213DUFAYS DAMIEN50BEL2:45:432:45:437:35 7.93152ve2144UCCLE
736.1644FVANDENDAELE SANDRINE45BEL2:45:572:45:577:35 7.9248ai1143BAISY-THY
737.1052BOURLET NICOLAS33BELRCNAMUR2:46:002:46:007:35 7.92191sen142
738.1193FDIDIER EDITH61FRA2:46:092:46:097:36 7.916ai3141ROZÉRIEULLES
739.1260FFUNDUK STEPHANIE41BEL2:46:212:46:217:36 7.9049ai1139
740.572FTALLIER JEANNY60BELRCNAMUR2:46:292:46:297:37 7.897ai3138FLAWINNE
741.786WARNAU YVES66BELRCB2:46:362:46:367:37 7.8969ve3136DROGENBOS
742.1663FVANSTEENBRUGGE DOMINIQUE46BELJC HERINNES2:46:462:46:467:37 7.8850ai1135PECQ
743.330GEUSKENS NICOLAS46BELRUN AG PSOR2:47:252:47:257:39 7.85186ve1131WAVRE
744.1161DELVAUX PHILIPPE47BEL2:47:312:47:317:39 7.84187ve1130SAINT-DENIS
745.1185FDETRAUX ANJA46BEL2:47:482:47:487:40 7.8351ai1128OPWIJK
746.1147FDEGUELDRE JULIE30BEL2:47:492:47:497:40 7.8342dam127HOUYET
747.1620THIERRY HERVÉ57FRAHRC2:48:002:48:007:41 7.82153ve2126LEXY
748.1501FOSTAFE MIHAELA35BEL2:48:042:48:047:41 7.8243dam125BRUXELLES
749.1608FSTEELANDT CATHY31BEL2:48:292:48:297:42 7.8044dam122OUDENBURG
750.1675FVERPLANCKE LIESBETH33BELGJC2:48:292:48:297:42 7.8045dam121OUDENBURG
DNF: abandon; DSQ: disqualifié; Vitesse en km/h
04/08/2020 - 02:11 - 814 Entrées
ChronoRace - Electronic Timing SPRL
http://www.chronorace.be

Page 15 / 17  
La Descente de la Lesse
Course à pied Dinant, 31/08/2014, BEL
Delhalle - 21.9km - Classement
21.9km 
Catégorie
PosNrNomAgeIOCLigueEquipeRéelTempsTkmMoy.RangNomPtsLocalité
751.1658VAN PEE JOHAN46BELMAC2:48:292:48:297:42 7.80188ve1121HOEILAART
752.1610STEVINS CEDRIC39BEL2:48:332:48:337:42 7.80192sen120BRUXELLES
753.928FVAN WYMERSCH SABINE48BELCSFMYSTERE2:49:052:49:057:44 7.7752ai1117DROGENBOS
754.1359FKIRITCHOUK HÉLÈNE49BELHERGNIES A.C.2:49:072:49:077:44 7.7753ai1116LEUZE
755.195GEUSKENS GEORGES80BELRUN AG PSOR2:49:082:49:087:44 7.773ve4116BRUXELLES
756.1638VANDAMME DANIËL60BEL2:49:132:49:137:44 7.7770ve3115BRUGGE
757.1407FLEUWERS CARINE42BEL2:49:142:49:147:44 7.7654ai1114RENINGE
758.1321HENRY DIDIER51BEL2:49:142:49:147:44 7.76154ve2114CORROY-LE-GRAND
759.868FDASSY MELANY29BELJC INCOURT2:49:392:49:397:45 7.7546dam111JODOIGNE
760.1013FBAELE VERONIQUE47BEL2:49:422:49:427:45 7.7455ai1110ZWALM
761.1190DHEUVAERT TOMMY47BEL2:49:572:49:577:46 7.73189ve1108ZWALM
762.1133FDECERF ISABELLE41BEL2:50:082:50:087:47 7.7256ai1107WARISOULX
763.1024FBERTON YVETTE58BEL2:50:082:50:087:47 7.7234ai2106LA BRUYÈRE
764.635PANNEELS JEAN-JACQUES62BELAXA TEAM2:50:202:50:207:47 7.7171ve3105MELLERY
765.89FVANHUFFELEN JOSSELINE60BELAXA TEAM2:50:212:50:217:47 7.718ai3104MELLERY
766.1086CHATEAU JEAN-LUC64FRAMETZ MARATHON2:50:222:50:227:47 7.7172ve3104SAINT JULIEN LES METZ
767.1427MAES THIBAUD35BEL2:50:282:50:287:48 7.71193sen102LIERNU
768.299DORVAL ROLAND51BEL2:50:332:50:337:48 7.70155ve2102MEEFFE
769.1399FLELEU LAURENCE51BEL2:51:132:51:137:50 7.6735ai297SPY
770.1167FDEMOL CATHERINE43BELMYSTERE2:51:162:51:167:50 7.6757ai197BRUXELLES
771.613SCHOEPS IVAN76BEL2:51:432:51:437:51 7.654ve494BRAINE-LE-COMTE
772.1111FCOUPE HÉLÈNE53FRACMACHARLEVILLE MÉZ2:51:442:51:447:51 7.6536ai293
773.440ETIENNE CHRISTIAN63BELRCNAMUR2:51:472:51:477:51 7.6573ve392LEUZE-LONGCHAMPS
774.1196DIRICX PATRICK52BEL2:52:292:52:297:53 7.62156ve288HAACHT
775.357FGROGNET SONIA52BELJAMES2:52:352:52:357:53 7.6137ai287LOUVAIN LA NEUVE
776.1290GONZE NICOLAS26BEL2:53:212:53:217:55 7.58194sen82BRUXELLES
777.448ROMAIN BERNARD57BEL2:53:242:53:247:56 7.58157ve281CHASTRE
778.1270FGENGOUX JACQUELINE54BELARCHARCH CINEY2:53:352:53:357:56 7.5738ai280PESSOUX
779.1036FBLONDIAU CATHERINE48BEL2:53:582:53:587:57 7.5558ai177MAILLEN
780.1142DEFOUR JEAN-FRANÇOIS48BELLEONARD RUNNING2:54:052:54:057:57 7.55190ve176BRUXELLES
781.1551FRICHARD ANNE51BELLES BEAUDETS DI2:54:092:54:097:58 7.5539ai275DINANT
782.1499OP DE BEECK SERGE48BEL2:54:592:54:598:00 7.51191ve170WERCHTER
783.1439MARSICK STÉPHANE40BEL2:55:212:55:218:01 7.49192ve167ROCROI
784.1109CORNET LUCAS21BEL2:55:232:55:238:01 7.49195sen67SOIGNIES
785.1476FMOMBAERS AURÉLIE28BELJCPMF TENNEVILL2:55:372:55:378:02 7.4847dam65TENNEVILLE
786.1504FPANNEEL KIMBERLEY19BEL2:55:372:55:378:02 7.482esf65BEERSEL
787.1589FSCHOONJANS ANN47BEL2:56:512:56:518:05 7.4359ai157HAACHT
788.1533POSTE GIUSEPPE56BEL2:57:092:57:098:06 7.42158ve255JUPILLE S/M
789.877DURANT MICHEL69BELRONVAU2:57:242:57:248:07 7.4174ve353NIL-ST-VINCENT
790.1434FMARCIN MONIQUE53BELARCH2:57:272:57:278:07 7.4140ai252CINEY
791.718MAKINTOSH EDOUARD66BEL2:58:012:58:018:08 7.3875ve349OVERIJSE
792.1341FJANDRAIN INGRID34BEL2:58:022:58:028:08 7.3848dam495080
793.1342JANDRAIN SÉBASTIEN35BEL2:58:022:58:028:08 7.38196sen485080
794.1018FBARREA CATHY46BELSPRINGBOCKS2:58:212:58:218:09 7.3760ai146BRUXELLES
795.1403FLEPIECE SYLVIE48BEL2:58:212:58:218:09 7.3761ai145
796.1094FCHRISTOPHE CLAUDINE58BELJCPMF2:58:222:58:228:09 7.3741ai245STERREBEEK
797.1582FSALIOU THERESE65FRA2:58:292:58:298:09 7.369ai344JOUY AUX ARCHES
798.1159DELOGNE GUY67BEL2:58:292:58:298:09 7.3676ve343UCCLE
799.1372LAMBERT JEROME G37BELAR NAMUR2:59:202:59:208:12 7.33197sen38VEDRIN
800.1339JACQUEMIN SERGE PHILIPPE44BEL2:59:462:59:468:13 7.31193ve135EREZEE
DNF: abandon; DSQ: disqualifié; Vitesse en km/h
04/08/2020 - 02:11 - 814 Entrées
ChronoRace - Electronic Timing SPRL
http://www.chronorace.be

Page 16 / 17  
La Descente de la Lesse
Course à pied Dinant, 31/08/2014, BEL
Delhalle - 21.9km - Classement
21.9km 
Catégorie
PosNrNomAgeIOCLigueEquipeRéelTempsTkmMoy.RangNomPtsLocalité
801.1220DUQUESNE OLIVIER27BEL2:59:462:59:468:13 7.31198sen35GENVAL
802.1219FDUQUESNE MARYSE24BEL2:59:552:59:558:13 7.3049dam33GENVAL
803.1038BODART ALAIN52BEL2:59:562:59:568:13 7.30159ve233ANGLEUR
804.1009ARENS ALAIN62BEL3:01:343:01:348:18 7.2477ve323BANDE
805.1373LAMBERT MATTHIEU32BEL3:02:473:02:478:21 7.19199sen16WÉPION
806.1168DEMOLDER YOANN24BEL3:02:473:02:478:21 7.19200sen16LIMELETTE
807.1426FMAES SABINE50BEL3:05:563:05:568:30 7.0742ai23WERCHTER
808.1524PIRON PASCAL51BELARCH3:06:393:06:398:32 7.04160ve22AYE
809.869GENOT YVES58BELENJAMBEE3:07:083:07:088:33 7.02161ve22KRAINEM
810.1014BAETENS JULIEN22BEL3:08:303:08:308:37 6.97201sen2ANDERLECHT
811.1031FBILLAUDELLE CLAUDINE68FRACMACHARLEVILLE MÉZ3:10:293:10:298:42 6.9010ai31
812.1234EVRARD JEAN-PATRICK33BEL3:14:123:14:128:53 6.77202sen1CINEY
813.1688FWIDART CLAUDINE56BEL3:15:423:15:428:57 6.7143ai21BANDE
814.1247FLEURQUIN XAVIER25BEL3:24:073:24:079:20 6.44203sen1UCCLE
DNF: abandon; DSQ: disqualifié; Vitesse en km/h
04/08/2020 - 02:11 - 814 Entrées
ChronoRace - Electronic Timing SPRL
http://www.chronorace.be

Page 17 / 17